GEFSMA_prec_meanprecacc_138.txt.gz
Total_Precipitation_Accumulation
1.68 1.70 1.63 1.65 1.59 1.81 2.11 2.16 2.06 2.24 2.26 2.05 1.76 1.58 1.50 1.39 1.26 1.30 1.43 1.37 1.25 1.33 1.59 1.68 1.55 1.44 1.34 1.15 1.00 0.94 0.90 0.82 0.78 0.64 0.51 0.48 0.55 0.56 0.50 0.43 0.38 0.34 0.33
2.11 2.15 2.00 1.94 1.83 1.88 2.06 2.19 2.22 2.63 2.49 2.35 1.92 1.71 1.65 1.60 1.50 1.47 1.50 1.62 1.38 1.24 1.34 1.60 1.76 1.72 1.65 1.44 1.24 1.09 0.97 0.89 0.79 0.59 0.46 0.42 0.50 0.60 0.57 0.50 0.41 0.33 0.26
2.21 2.29 2.26 2.13 2.09 2.08 2.19 2.21 2.39 2.63 2.33 2.20 1.91 1.81 1.72 1.58 1.44 1.48 1.61 1.73 1.58 1.38 1.23 1.33 1.60 1.74 1.82 1.80 1.66 1.41 1.16 0.98 0.85 0.65 0.49 0.43 0.47 0.55 0.55 0.55 0.49 0.36 0.25
2.25 2.33 2.13 2.01 2.28 2.36 2.40 2.48 2.56 2.59 2.43 2.34 2.13 1.81 1.69 1.62 1.30 1.30 1.35 1.34 1.42 1.27 1.36 1.50 1.62 1.68 1.84 1.96 1.97 1.90 1.61 1.26 1.03 0.85 0.67 0.55 0.56 0.59 0.53 0.51 0.49 0.38 0.27
2.07 2.21 2.04 2.10 2.35 2.43 2.41 2.24 2.55 2.52 2.46 2.37 2.01 1.72 1.48 1.32 1.19 1.05 1.01 0.95 1.06 1.10 1.18 1.34 1.50 1.50 1.74 2.03 2.16 2.24 2.13 1.79 1.40 1.15 1.03 0.86 0.75 0.66 0.58 0.54 0.50 0.42 0.33
2.09 2.23 2.10 2.19 2.34 2.41 2.34 2.35 2.48 2.51 2.35 2.30 1.86 1.53 1.31 1.06 1.05 0.98 0.83 0.86 0.88 0.84 0.89 1.07 1.34 1.19 1.52 1.83 1.97 2.26 2.44 2.31 1.92 1.59 1.43 1.31 1.16 0.96 0.75 0.66 0.63 0.56 0.44
2.13 2.30 2.18 2.33 2.34 2.18 2.16 2.33 2.47 2.32 2.11 2.28 2.04 1.44 1.05 0.85 0.87 0.82 0.82 0.89 0.84 0.84 0.95 1.18 1.29 1.23 1.18 1.32 1.38 1.66 2.16 2.49 2.41 2.08 1.77 1.57 1.53 1.43 1.06 0.93 0.87 0.78 0.66
1.97 1.97 2.01 2.00 2.04 2.10 2.11 2.17 2.34 2.13 1.81 2.02 2.00 1.71 1.13 0.88 0.76 0.67 0.79 0.81 0.81 0.92 0.99 1.13 1.38 1.50 1.38 1.47 1.25 1.24 1.73 2.30 2.57 2.54 2.23 1.94 1.84 1.76 1.45 1.32 1.13 0.93 0.80
1.63 1.63 1.65 1.78 2.00 2.11 2.06 2.09 2.11 1.98 1.67 1.69 1.84 1.90 1.40 1.02 0.80 0.56 0.61 0.73 0.89 1.05 1.05 1.23 1.36 1.48 1.56 1.70 1.72 1.54 1.46 1.61 2.07 2.60 2.60 2.29 1.99 1.79 1.82 1.84 1.62 1.23 0.95
1.46 1.42 1.44 1.49 1.56 1.65 1.68 1.62 1.74 1.85 1.80 1.62 1.72 1.76 1.61 1.43 1.24 0.81 0.64 0.68 0.86 0.97 1.08 1.10 1.13 1.21 1.49 1.84 1.95 1.74 1.50 1.34 1.47 2.13 2.62 2.62 2.27 1.97 1.98 2.12 2.25 1.90 1.32
1.31 1.29 1.25 1.23 1.20 1.26 1.38 1.41 1.52 1.57 1.62 1.60 1.63 1.70 1.66 1.62 1.58 1.37 0.99 0.93 0.93 0.83 0.91 1.00 1.04 1.09 1.37 1.63 1.77 1.69 1.68 1.48 1.42 1.57 1.93 2.26 2.31 2.20 2.11 2.23 2.57 2.59 2.17
1.06 1.04 1.07 1.10 1.09 1.13 1.22 1.30 1.37 1.33 1.43 1.48 1.52 1.59 1.66 1.63 1.66 1.67 1.34 1.19 1.08 0.92 0.94 0.91 0.91 0.98 1.20 1.39 1.34 1.45 1.46 1.32 1.24 1.29 1.43 1.70 1.84 1.96 2.04 2.24 2.59 2.88 2.85
0.76 0.78 0.79 0.89 0.93 1.02 1.05 1.05 1.14 1.23 1.37 1.45 1.47 1.53 1.57 1.55 1.55 1.61 1.55 1.30 1.18 1.06 1.08 1.02 0.91 0.95 0.96 1.23 1.24 1.15 1.00 0.92 0.90 0.93 0.94 1.08 1.30 1.44 1.61 1.84 2.16 2.47 2.71
0.57 0.62 0.72 0.84 0.92 0.96 0.97 1.00 1.00 1.06 1.21 1.35 1.43 1.60 1.53 1.43 1.46 1.53 1.62 1.58 1.38 1.22 1.23 1.09 0.98 0.92 0.95 1.05 1.03 0.89 0.82 0.74 0.70 0.69 0.67 0.69 0.77 0.90 1.05 1.26 1.52 1.74 1.94
0.54 0.58 0.66 0.77 0.90 1.01 1.04 1.03 1.04 1.13 1.27 1.35 1.49 1.58 1.51 1.48 1.50 1.50 1.61 1.70 1.64 1.44 1.26 1.18 1.08 0.95 0.92 0.90 0.88 0.87 0.84 0.75 0.65 0.60 0.56 0.54 0.57 0.60 0.69 0.85 1.02 1.19 1.30
0.50 0.55 0.63 0.70 0.72 0.79 0.85 0.86 0.94 1.06 1.22 1.28 1.29 1.36 1.42 1.45 1.58 1.54 1.60 1.68 1.73 1.64 1.34 1.26 1.18 0.97 1.02 0.80 0.78 0.81 0.82 0.72 0.57 0.51 0.49 0.49 0.51 0.54 0.56 0.62 0.73 0.87 1.03
0.45 0.50 0.55 0.55 0.56 0.57 0.59 0.65 0.76 0.90 0.98 0.99 0.97 1.02 1.07 1.16 1.30 1.34 1.42 1.49 1.61 1.66 1.40 1.35 1.48 1.36 1.32 1.10 0.93 0.86 0.72 0.68 0.61 0.51 0.45 0.43 0.44 0.48 0.54 0.56 0.57 0.63 0.75
0.39 0.42 0.44 0.46 0.45 0.47 0.54 0.61 0.68 0.76 0.84 0.83 0.83 0.85 0.82 0.91 1.07 1.13 1.22 1.33 1.50 1.69 1.54 1.46 1.61 1.65 1.56 1.37 1.24 1.06 0.79 0.64 0.67 0.63 0.48 0.42 0.41 0.44 0.51 0.55 0.52 0.52 0.57
0.33 0.35 0.39 0.43 0.47 0.54 0.65 0.75 0.82 0.79 0.71 0.65 0.61 0.60 0.60 0.68 0.81 0.94 1.08 1.14 1.26 1.57 1.64 1.52 1.56 1.80 1.79 1.62 1.57 1.31 1.12 1.01 0.75 0.69 0.56 0.46 0.43 0.43 0.48 0.56 0.57 0.54 0.52
0.35 0.41 0.46 0.53 0.61 0.64 0.67 0.72 0.74 0.77 0.72 0.61 0.50 0.43 0.42 0.52 0.65 0.77 0.88 0.99 1.10 1.27 1.47 1.54 1.54 1.76 1.86 1.76 1.85 1.65 1.41 1.25 1.02 0.80 0.71 0.53 0.47 0.49 0.49 0.52 0.57 0.60 0.61
0.31 0.43 0.52 0.57 0.66 0.64 0.59 0.59 0.59 0.54 0.55 0.55 0.50 0.40 0.36 0.39 0.46 0.57 0.63 0.76 0.91 1.06 1.18 1.36 1.48 1.64 1.86 1.87 1.75 1.73 1.56 1.40 1.30 1.18 1.14 0.82 0.55 0.48 0.47 0.50 0.56 0.64 0.71
0.30 0.38 0.41 0.46 0.52 0.46 0.40 0.38 0.39 0.41 0.44 0.47 0.48 0.44 0.38 0.34 0.34 0.38 0.44 0.52 0.61 0.72 0.90 1.11 1.25 1.39 1.63 1.82 1.80 1.83 1.74 1.51 1.40 1.33 1.39 1.40 1.08 0.82 0.66 0.47 0.47 0.56 0.70
0.36 0.41 0.40 0.40 0.43 0.47 0.39 0.32 0.29 0.31 0.37 0.41 0.44 0.44 0.33 0.28 0.30 0.30 0.31 0.35 0.43 0.44 0.53 0.75 0.91 0.98 1.14 1.42 1.73 1.86 1.93 1.78 1.59 1.56 1.57 1.69 1.77 1.51 1.03 0.71 0.61 0.54 0.62
0.52 0.54 0.48 0.46 0.47 0.46 0.40 0.31 0.28 0.27 0.33 0.38 0.43 0.41 0.37 0.33 0.33 0.35 0.38 0.39 0.35 0.34 0.34 0.40 0.51 0.70 0.84 1.08 1.44 1.65 1.89 2.07 1.95 1.86 1.81 1.90 1.99 2.20 1.76 1.20 0.96 0.75 0.70
0.59 0.60 0.55 0.52 0.52 0.50 0.41 0.30 0.29 0.35 0.39 0.41 0.44 0.41 0.39 0.37 0.33 0.28 0.34 0.39 0.35 0.33 0.30 0.33 0.39 0.53 0.72 0.85 1.14 1.48 1.73 1.85 1.91 1.99 1.98 2.04 2.04 2.18 2.50 2.09 1.41 1.00 0.79
0.64 0.61 0.58 0.61 0.61 0.59 0.49 0.35 0.33 0.38 0.46 0.49 0.56 0.55 0.42 0.33 0.31 0.27 0.30 0.36 0.35 0.33 0.34 0.34 0.38 0.43 0.52 0.66 0.86 1.13 1.34 1.51 1.55 1.69 1.65 1.59 1.63 1.76 2.22 2.53 2.19 1.57 1.11

GEFSMA_prec_meanprecacc_144.txt.gz
Total_Precipitation_Accumulation
1.73 1.76 1.69 1.70 1.62 1.84 2.13 2.19 2.09 2.26 2.28 2.06 1.77 1.60 1.52 1.40 1.27 1.31 1.46 1.39 1.28 1.36 1.63 1.74 1.60 1.49 1.39 1.21 1.06 0.99 0.95 0.87 0.83 0.68 0.55 0.52 0.59 0.60 0.53 0.45 0.40 0.35 0.34
2.18 2.22 2.06 1.99 1.86 1.91 2.09 2.21 2.24 2.67 2.52 2.37 1.93 1.73 1.66 1.62 1.52 1.48 1.53 1.67 1.41 1.27 1.38 1.66 1.83 1.79 1.71 1.49 1.30 1.16 1.03 0.94 0.84 0.64 0.52 0.47 0.55 0.64 0.61 0.53 0.44 0.36 0.27
2.29 2.36 2.32 2.18 2.11 2.10 2.23 2.25 2.43 2.66 2.36 2.23 1.94 1.83 1.73 1.60 1.46 1.49 1.64 1.80 1.64 1.42 1.27 1.38 1.66 1.81 1.87 1.86 1.73 1.48 1.21 1.03 0.90 0.69 0.53 0.47 0.51 0.60 0.60 0.59 0.54 0.39 0.27
2.32 2.39 2.19 2.06 2.31 2.40 2.44 2.53 2.59 2.62 2.46 2.38 2.17 1.84 1.72 1.65 1.32 1.33 1.38 1.40 1.51 1.34 1.42 1.55 1.68 1.75 1.92 2.04 2.05 1.98 1.69 1.33 1.09 0.89 0.70 0.59 0.60 0.62 0.57 0.55 0.54 0.42 0.30
2.15 2.29 2.11 2.15 2.38 2.47 2.45 2.27 2.57 2.54 2.49 2.40 2.04 1.76 1.51 1.35 1.23 1.09 1.07 1.00 1.13 1.17 1.24 1.38 1.53 1.55 1.82 2.13 2.27 2.36 2.25 1.90 1.47 1.21 1.08 0.91 0.80 0.70 0.61 0.58 0.54 0.47 0.36
2.19 2.31 2.17 2.24 2.38 2.44 2.38 2.38 2.51 2.54 2.37 2.33 1.87 1.55 1.33 1.08 1.07 1.02 0.87 0.90 0.92 0.89 0.93 1.12 1.41 1.24 1.56 1.88 2.03 2.36 2.57 2.43 2.03 1.69 1.52 1.39 1.23 1.01 0.78 0.70 0.66 0.59 0.47
2.23 2.38 2.25 2.39 2.39 2.22 2.21 2.36 2.49 2.36 2.14 2.30 2.06 1.47 1.07 0.87 0.88 0.83 0.84 0.91 0.87 0.87 0.99 1.23 1.35 1.28 1.24 1.36 1.42 1.72 2.23 2.58 2.51 2.17 1.87 1.68 1.63 1.51 1.12 0.98 0.91 0.81 0.69
2.09 2.06 2.09 2.06 2.09 2.14 2.15 2.21 2.37 2.17 1.83 2.04 2.02 1.74 1.16 0.91 0.78 0.68 0.81 0.84 0.84 0.94 1.02 1.16 1.41 1.54 1.42 1.54 1.30 1.27 1.78 2.37 2.66 2.64 2.31 2.03 1.92 1.83 1.51 1.37 1.18 0.96 0.83
1.72 1.71 1.72 1.84 2.05 2.15 2.11 2.13 2.15 2.02 1.70 1.71 1.86 1.93 1.42 1.05 0.83 0.58 0.62 0.75 0.91 1.08 1.08 1.25 1.38 1.51 1.58 1.74 1.76 1.57 1.48 1.65 2.14 2.70 2.69 2.39 2.09 1.87 1.88 1.90 1.69 1.29 1.00
1.52 1.48 1.50 1.54 1.62 1.70 1.74 1.66 1.77 1.89 1.84 1.65 1.74 1.78 1.63 1.44 1.26 0.83 0.65 0.69 0.87 0.99 1.09 1.11 1.14 1.23 1.51 1.85 1.97 1.76 1.50 1.35 1.50 2.18 2.68 2.70 2.36 2.07 2.05 2.18 2.31 1.97 1.40
1.37 1.33 1.28 1.26 1.23 1.29 1.42 1.45 1.55 1.60 1.64 1.61 1.64 1.71 1.67 1.63 1.58 1.38 1.00 0.95 0.93 0.84 0.92 1.01 1.05 1.10 1.38 1.64 1.79 1.71 1.69 1.49 1.44 1.59 1.96 2.29 2.35 2.26 2.17 2.29 2.64 2.66 2.26
1.11 1.08 1.09 1.12 1.12 1.16 1.25 1.33 1.40 1.36 1.44 1.49 1.52 1.60 1.66 1.64 1.67 1.67 1.35 1.20 1.09 0.93 0.95 0.92 0.93 1.00 1.22 1.40 1.35 1.46 1.47 1.33 1.25 1.30 1.44 1.71 1.87 1.99 2.07 2.27 2.64 2.94 2.94
0.79 0.82 0.81 0.91 0.95 1.04 1.07 1.08 1.16 1.26 1.39 1.47 1.48 1.54 1.57 1.55 1.55 1.61 1.55 1.31 1.19 1.06 1.08 1.02 0.91 0.96 0.97 1.25 1.25 1.15 1.01 0.93 0.90 0.93 0.94 1.09 1.30 1.45 1.62 1.85 2.18 2.51 2.76
0.61 0.66 0.74 0.87 0.95 0.98 0.99 1.02 1.02 1.08 1.23 1.36 1.44 1.61 1.53 1.43 1.46 1.53 1.62 1.58 1.38 1.22 1.23 1.10 0.98 0.92 0.95 1.06 1.03 0.90 0.82 0.74 0.71 0.69 0.67 0.69 0.78 0.90 1.05 1.26 1.52 1.74 1.94
0.58 0.60 0.69 0.80 0.92 1.03 1.06 1.05 1.05 1.14 1.28 1.36 1.49 1.58 1.51 1.48 1.50 1.50 1.61 1.70 1.64 1.45 1.26 1.18 1.08 0.95 0.92 0.91 0.88 0.87 0.84 0.75 0.65 0.60 0.56 0.54 0.57 0.60 0.69 0.85 1.02 1.19 1.30
0.52 0.57 0.65 0.72 0.74 0.79 0.85 0.87 0.95 1.07 1.22 1.29 1.30 1.36 1.42 1.45 1.58 1.54 1.60 1.68 1.73 1.64 1.34 1.26 1.18 0.97 1.03 0.81 0.78 0.81 0.82 0.72 0.57 0.51 0.49 0.49 0.51 0.54 0.56 0.62 0.73 0.87 1.03
0.46 0.51 0.56 0.56 0.57 0.57 0.60 0.65 0.76 0.91 0.98 1.00 0.98 1.02 1.07 1.16 1.30 1.34 1.42 1.49 1.61 1.66 1.40 1.35 1.48 1.36 1.32 1.10 0.93 0.86 0.72 0.68 0.61 0.51 0.45 0.43 0.44 0.48 0.54 0.56 0.57 0.63 0.75
0.40 0.43 0.45 0.46 0.45 0.47 0.55 0.61 0.68 0.76 0.84 0.83 0.83 0.85 0.82 0.91 1.07 1.13 1.22 1.33 1.50 1.69 1.54 1.46 1.61 1.65 1.56 1.37 1.24 1.06 0.79 0.64 0.67 0.63 0.48 0.42 0.41 0.44 0.51 0.55 0.52 0.52 0.57
0.35 0.37 0.40 0.44 0.47 0.54 0.65 0.76 0.82 0.79 0.71 0.65 0.61 0.60 0.60 0.68 0.81 0.94 1.08 1.14 1.26 1.57 1.64 1.52 1.56 1.81 1.79 1.62 1.57 1.31 1.12 1.01 0.75 0.69 0.56 0.46 0.43 0.43 0.48 0.56 0.57 0.54 0.52
0.40 0.45 0.48 0.54 0.61 0.64 0.67 0.72 0.74 0.77 0.72 0.62 0.50 0.43 0.42 0.52 0.65 0.78 0.88 0.99 1.10 1.27 1.47 1.54 1.54 1.76 1.86 1.76 1.85 1.65 1.41 1.25 1.02 0.80 0.71 0.53 0.47 0.49 0.49 0.52 0.57 0.60 0.61
0.34 0.47 0.54 0.59 0.67 0.64 0.59 0.59 0.59 0.54 0.55 0.56 0.50 0.40 0.36 0.39 0.46 0.58 0.63 0.76 0.92 1.06 1.18 1.36 1.48 1.64 1.86 1.87 1.75 1.73 1.56 1.40 1.30 1.18 1.14 0.82 0.55 0.48 0.48 0.50 0.56 0.64 0.71
0.32 0.40 0.42 0.48 0.53 0.47 0.41 0.39 0.40 0.42 0.44 0.47 0.48 0.44 0.38 0.34 0.34 0.38 0.44 0.52 0.61 0.72 0.90 1.12 1.25 1.39 1.63 1.83 1.81 1.83 1.75 1.52 1.40 1.33 1.40 1.41 1.08 0.82 0.66 0.47 0.47 0.56 0.70
0.39 0.43 0.42 0.41 0.44 0.48 0.40 0.33 0.30 0.32 0.38 0.42 0.45 0.45 0.34 0.28 0.30 0.30 0.31 0.35 0.43 0.44 0.53 0.76 0.92 0.98 1.14 1.43 1.74 1.87 1.94 1.79 1.60 1.57 1.58 1.69 1.77 1.51 1.03 0.71 0.62 0.54 0.62
0.54 0.56 0.49 0.47 0.48 0.47 0.41 0.32 0.28 0.28 0.33 0.40 0.44 0.42 0.38 0.33 0.33 0.36 0.39 0.39 0.36 0.34 0.35 0.40 0.51 0.70 0.85 1.09 1.45 1.66 1.90 2.07 1.96 1.87 1.82 1.91 1.99 2.20 1.76 1.20 0.96 0.75 0.70
0.61 0.62 0.56 0.53 0.53 0.51 0.41 0.32 0.30 0.36 0.40 0.42 0.44 0.42 0.40 0.38 0.34 0.28 0.35 0.39 0.35 0.34 0.31 0.34 0.39 0.53 0.72 0.85 1.14 1.48 1.73 1.85 1.92 1.99 1.99 2.05 2.05 2.18 2.51 2.09 1.41 1.01 0.79
0.67 0.63 0.60 0.62 0.62 0.61 0.50 0.37 0.35 0.40 0.47 0.49 0.57 0.56 0.43 0.34 0.32 0.28 0.30 0.36 0.36 0.34 0.36 0.35 0.39 0.44 0.53 0.67 0.87 1.14 1.35 1.52 1.57 1.71 1.66 1.61 1.64 1.77 2.23 2.54 2.20 1.57 1.11

GEFSMA_prec_meanprecacc_150.txt.gz
Total_Precipitation_Accumulation
1.80 1.83 1.76 1.76 1.67 1.87 2.17 2.24 2.13 2.29 2.31 2.10 1.85 1.65 1.55 1.42 1.30 1.35 1.49 1.41 1.28 1.36 1.64 1.75 1.61 1.50 1.40 1.22 1.06 1.00 0.96 0.89 0.85 0.71 0.58 0.54 0.63 0.64 0.56 0.47 0.42 0.36 0.34
2.25 2.28 2.12 2.05 1.92 1.95 2.13 2.25 2.28 2.69 2.55 2.40 1.96 1.74 1.67 1.65 1.56 1.51 1.59 1.70 1.43 1.28 1.39 1.67 1.84 1.80 1.72 1.50 1.31 1.18 1.05 0.95 0.85 0.65 0.54 0.49 0.57 0.67 0.64 0.56 0.46 0.37 0.28
2.37 2.42 2.39 2.23 2.16 2.15 2.27 2.28 2.47 2.69 2.39 2.26 1.97 1.85 1.74 1.64 1.53 1.53 1.72 1.89 1.70 1.45 1.29 1.40 1.68 1.83 1.88 1.87 1.75 1.50 1.22 1.04 0.91 0.71 0.54 0.49 0.52 0.61 0.61 0.61 0.56 0.41 0.28
2.37 2.45 2.25 2.12 2.36 2.44 2.49 2.58 2.64 2.66 2.50 2.40 2.20 1.87 1.74 1.67 1.35 1.36 1.44 1.48 1.60 1.42 1.49 1.59 1.72 1.78 1.94 2.06 2.08 2.01 1.71 1.35 1.11 0.92 0.73 0.61 0.62 0.64 0.58 0.56 0.55 0.44 0.31
2.18 2.33 2.16 2.21 2.42 2.50 2.49 2.30 2.63 2.59 2.53 2.43 2.05 1.78 1.53 1.38 1.26 1.12 1.14 1.07 1.18 1.24 1.31 1.43 1.57 1.57 1.85 2.16 2.30 2.39 2.28 1.93 1.51 1.24 1.12 0.94 0.82 0.73 0.64 0.60 0.55 0.49 0.37
2.24 2.36 2.22 2.30 2.43 2.50 2.44 2.44 2.57 2.59 2.42 2.36 1.89 1.58 1.35 1.10 1.09 1.05 0.92 0.93 0.98 0.93 0.98 1.19 1.47 1.27 1.58 1.90 2.06 2.38 2.59 2.46 2.06 1.72 1.56 1.43 1.27 1.04 0.81 0.72 0.68 0.61 0.49
2.29 2.45 2.32 2.46 2.46 2.30 2.27 2.41 2.54 2.39 2.18 2.33 2.10 1.51 1.11 0.89 0.90 0.86 0.87 0.94 0.90 0.90 1.04 1.29 1.39 1.33 1.28 1.38 1.43 1.74 2.25 2.60 2.54 2.20 1.90 1.71 1.67 1.55 1.15 1.00 0.93 0.83 0.71
2.15 2.11 2.18 2.12 2.16 2.23 2.22 2.27 2.43 2.22 1.87 2.07 2.05 1.78 1.23 0.98 0.83 0.72 0.84 0.86 0.86 0.98 1.05 1.19 1.44 1.58 1.46 1.58 1.32 1.28 1.79 2.40 2.68 2.66 2.33 2.05 1.95 1.86 1.54 1.40 1.20 0.98 0.85
1.77 1.77 1.80 1.92 2.13 2.22 2.18 2.21 2.22 2.09 1.76 1.75 1.89 1.97 1.48 1.12 0.89 0.64 0.66 0.77 0.93 1.11 1.11 1.27 1.40 1.53 1.61 1.77 1.79 1.58 1.49 1.67 2.16 2.71 2.71 2.41 2.11 1.89 1.91 1.94 1.72 1.31 1.02
1.58 1.53 1.56 1.62 1.69 1.75 1.79 1.70 1.81 1.94 1.89 1.70 1.78 1.80 1.65 1.47 1.30 0.89 0.70 0.72 0.89 1.01 1.11 1.13 1.16 1.26 1.53 1.89 1.99 1.77 1.51 1.35 1.51 2.20 2.70 2.72 2.39 2.10 2.08 2.20 2.34 2.00 1.43
1.43 1.38 1.33 1.33 1.29 1.34 1.46 1.48 1.58 1.63 1.67 1.65 1.68 1.73 1.69 1.64 1.59 1.40 1.05 0.98 0.96 0.85 0.93 1.02 1.07 1.12 1.40 1.66 1.81 1.71 1.69 1.49 1.44 1.60 1.97 2.31 2.37 2.28 2.19 2.32 2.66 2.69 2.29
1.18 1.13 1.14 1.18 1.16 1.20 1.28 1.35 1.42 1.38 1.46 1.52 1.55 1.62 1.67 1.65 1.68 1.69 1.38 1.23 1.13 0.96 0.96 0.93 0.94 1.01 1.23 1.41 1.35 1.46 1.47 1.33 1.26 1.31 1.45 1.73 1.88 2.00 2.08 2.29 2.65 2.96 2.96
0.84 0.87 0.86 0.96 1.00 1.08 1.10 1.10 1.19 1.28 1.41 1.48 1.49 1.55 1.58 1.56 1.56 1.62 1.56 1.32 1.20 1.07 1.09 1.02 0.92 0.96 0.98 1.26 1.26 1.15 1.01 0.93 0.90 0.93 0.95 1.09 1.31 1.46 1.64 1.87 2.19 2.52 2.78
0.65 0.71 0.79 0.91 0.98 1.01 1.00 1.04 1.05 1.11 1.25 1.38 1.45 1.62 1.54 1.43 1.47 1.54 1.63 1.59 1.39 1.23 1.24 1.10 0.98 0.92 0.96 1.07 1.04 0.90 0.83 0.74 0.71 0.69 0.67 0.69 0.78 0.90 1.05 1.26 1.53 1.75 1.95
0.63 0.66 0.74 0.83 0.95 1.05 1.08 1.07 1.07 1.16 1.30 1.38 1.50 1.59 1.52 1.49 1.50 1.50 1.61 1.70 1.64 1.45 1.28 1.19 1.08 0.95 0.92 0.92 0.88 0.88 0.85 0.75 0.65 0.60 0.56 0.54 0.57 0.60 0.69 0.85 1.02 1.19 1.30
0.59 0.63 0.70 0.76 0.77 0.82 0.87 0.89 0.97 1.09 1.25 1.31 1.31 1.37 1.42 1.45 1.59 1.54 1.61 1.68 1.73 1.64 1.35 1.27 1.18 0.98 1.03 0.81 0.79 0.81 0.82 0.72 0.57 0.51 0.49 0.49 0.51 0.54 0.56 0.62 0.73 0.87 1.03
0.52 0.57 0.61 0.60 0.59 0.60 0.62 0.68 0.78 0.93 1.00 1.01 0.99 1.02 1.07 1.17 1.30 1.34 1.42 1.49 1.61 1.66 1.40 1.35 1.48 1.36 1.32 1.10 0.94 0.86 0.72 0.68 0.61 0.51 0.45 0.43 0.44 0.48 0.54 0.56 0.57 0.63 0.75
0.46 0.48 0.49 0.49 0.47 0.50 0.57 0.63 0.70 0.78 0.85 0.84 0.83 0.85 0.83 0.91 1.07 1.13 1.22 1.33 1.50 1.69 1.54 1.46 1.61 1.65 1.57 1.37 1.24 1.06 0.79 0.64 0.67 0.63 0.48 0.42 0.41 0.44 0.51 0.55 0.52 0.52 0.57
0.41 0.41 0.43 0.46 0.49 0.56 0.66 0.77 0.83 0.80 0.72 0.65 0.61 0.60 0.61 0.68 0.81 0.94 1.08 1.14 1.26 1.57 1.64 1.52 1.56 1.81 1.79 1.62 1.57 1.31 1.12 1.01 0.75 0.69 0.56 0.46 0.43 0.43 0.48 0.56 0.57 0.54 0.52
0.44 0.48 0.51 0.56 0.62 0.65 0.68 0.72 0.74 0.77 0.73 0.62 0.51 0.43 0.43 0.52 0.65 0.78 0.88 0.99 1.10 1.27 1.47 1.54 1.54 1.76 1.86 1.76 1.86 1.65 1.42 1.25 1.02 0.80 0.71 0.53 0.47 0.49 0.49 0.52 0.57 0.60 0.61
0.37 0.50 0.57 0.61 0.69 0.65 0.59 0.59 0.59 0.55 0.56 0.56 0.51 0.41 0.36 0.39 0.47 0.58 0.64 0.76 0.92 1.07 1.19 1.36 1.48 1.64 1.87 1.88 1.76 1.74 1.57 1.41 1.30 1.19 1.14 0.82 0.55 0.48 0.48 0.50 0.56 0.64 0.71
0.35 0.42 0.44 0.49 0.55 0.48 0.42 0.40 0.41 0.43 0.46 0.49 0.50 0.45 0.39 0.34 0.34 0.38 0.44 0.52 0.61 0.73 0.90 1.12 1.25 1.40 1.64 1.84 1.83 1.85 1.76 1.53 1.41 1.34 1.40 1.41 1.08 0.82 0.66 0.47 0.47 0.56 0.70
0.41 0.45 0.44 0.44 0.46 0.50 0.41 0.34 0.31 0.33 0.39 0.44 0.46 0.46 0.35 0.29 0.30 0.30 0.32 0.36 0.43 0.44 0.53 0.76 0.92 0.98 1.16 1.45 1.76 1.89 1.96 1.81 1.61 1.57 1.59 1.69 1.77 1.51 1.03 0.71 0.62 0.54 0.62
0.58 0.59 0.52 0.50 0.50 0.49 0.42 0.33 0.29 0.29 0.35 0.41 0.45 0.43 0.40 0.36 0.36 0.37 0.40 0.40 0.37 0.35 0.36 0.40 0.51 0.71 0.87 1.11 1.48 1.69 1.92 2.09 1.96 1.87 1.83 1.92 2.00 2.21 1.76 1.20 0.97 0.75 0.70
0.66 0.65 0.60 0.57 0.56 0.53 0.43 0.33 0.32 0.37 0.41 0.43 0.45 0.44 0.42 0.41 0.37 0.30 0.37 0.42 0.38 0.37 0.33 0.35 0.40 0.55 0.73 0.87 1.15 1.49 1.74 1.86 1.92 2.00 2.00 2.07 2.05 2.19 2.51 2.09 1.41 1.01 0.80
0.72 0.68 0.64 0.66 0.66 0.64 0.53 0.39 0.37 0.41 0.48 0.51 0.59 0.58 0.46 0.37 0.35 0.30 0.33 0.40 0.39 0.37 0.39 0.38 0.41 0.45 0.53 0.67 0.87 1.14 1.36 1.53 1.58 1.72 1.67 1.62 1.66 1.79 2.24 2.54 2.20 1.57 1.12

GEFSMA_prec_meanprecacc_156.txt.gz
Total_Precipitation_Accumulation
1.81 1.84 1.78 1.79 1.68 1.88 2.18 2.25 2.15 2.33 2.36 2.17 1.95 1.77 1.68 1.53 1.39 1.43 1.51 1.43 1.31 1.39 1.65 1.76 1.61 1.51 1.41 1.24 1.08 1.02 0.97 0.90 0.86 0.72 0.59 0.55 0.64 0.65 0.56 0.47 0.42 0.37 0.35
2.26 2.30 2.15 2.08 1.94 1.97 2.14 2.26 2.30 2.72 2.59 2.45 2.02 1.83 1.77 1.74 1.60 1.55 1.60 1.71 1.45 1.30 1.41 1.68 1.85 1.82 1.73 1.52 1.33 1.20 1.06 0.97 0.87 0.67 0.55 0.50 0.58 0.67 0.65 0.56 0.47 0.38 0.28
2.38 2.43 2.41 2.26 2.18 2.17 2.28 2.29 2.49 2.71 2.43 2.30 2.02 1.92 1.82 1.69 1.56 1.56 1.73 1.90 1.71 1.47 1.32 1.42 1.70 1.85 1.90 1.88 1.77 1.52 1.24 1.06 0.92 0.72 0.55 0.50 0.53 0.62 0.62 0.62 0.58 0.42 0.28
2.38 2.45 2.26 2.14 2.37 2.46 2.51 2.60 2.67 2.70 2.53 2.43 2.24 1.93 1.79 1.70 1.37 1.38 1.46 1.50 1.61 1.43 1.51 1.62 1.75 1.80 1.96 2.08 2.10 2.04 1.74 1.37 1.13 0.93 0.74 0.62 0.63 0.65 0.60 0.58 0.57 0.45 0.31
2.20 2.34 2.17 2.22 2.43 2.52 2.52 2.32 2.66 2.62 2.57 2.46 2.08 1.83 1.58 1.42 1.29 1.16 1.17 1.10 1.20 1.25 1.33 1.46 1.60 1.60 1.88 2.21 2.35 2.42 2.31 1.96 1.53 1.27 1.14 0.95 0.84 0.75 0.65 0.61 0.57 0.50 0.38
2.25 2.37 2.23 2.31 2.45 2.52 2.46 2.46 2.60 2.61 2.44 2.39 1.93 1.64 1.41 1.14 1.14 1.10 0.95 0.97 1.01 0.96 1.01 1.21 1.48 1.29 1.61 1.95 2.12 2.43 2.64 2.50 2.09 1.74 1.59 1.45 1.30 1.07 0.83 0.74 0.70 0.64 0.51
2.32 2.47 2.34 2.48 2.47 2.31 2.28 2.43 2.56 2.41 2.19 2.35 2.14 1.56 1.17 0.97 0.98 0.93 0.93 0.98 0.94 0.94 1.07 1.31 1.40 1.33 1.30 1.41 1.46 1.76 2.29 2.64 2.58 2.24 1.93 1.74 1.70 1.57 1.17 1.02 0.95 0.85 0.73
2.18 2.14 2.21 2.15 2.18 2.24 2.23 2.28 2.44 2.24 1.89 2.08 2.07 1.81 1.27 1.04 0.89 0.77 0.90 0.92 0.91 1.02 1.08 1.21 1.45 1.58 1.47 1.59 1.32 1.29 1.81 2.43 2.73 2.70 2.36 2.08 1.98 1.89 1.56 1.43 1.23 1.00 0.87
1.82 1.82 1.83 1.94 2.15 2.23 2.18 2.21 2.22 2.09 1.77 1.76 1.90 1.98 1.49 1.13 0.91 0.67 0.69 0.82 0.99 1.16 1.14 1.29 1.42 1.55 1.61 1.78 1.79 1.58 1.50 1.69 2.19 2.75 2.74 2.44 2.13 1.91 1.93 1.96 1.74 1.34 1.04
1.65 1.59 1.60 1.65 1.72 1.78 1.81 1.70 1.81 1.94 1.89 1.71 1.79 1.81 1.66 1.48 1.30 0.90 0.72 0.74 0.92 1.03 1.13 1.14 1.16 1.26 1.54 1.89 2.00 1.77 1.52 1.36 1.52 2.22 2.72 2.74 2.41 2.11 2.09 2.22 2.36 2.02 1.45
1.51 1.45 1.38 1.36 1.31 1.35 1.47 1.49 1.58 1.63 1.67 1.65 1.68 1.74 1.70 1.66 1.60 1.41 1.05 0.99 0.97 0.87 0.94 1.03 1.07 1.13 1.41 1.67 1.81 1.72 1.69 1.49 1.45 1.61 1.98 2.33 2.38 2.29 2.21 2.33 2.68 2.72 2.32
1.27 1.21 1.20 1.22 1.18 1.21 1.29 1.37 1.43 1.39 1.46 1.53 1.56 1.62 1.68 1.66 1.69 1.69 1.38 1.23 1.14 0.97 0.97 0.93 0.94 1.01 1.24 1.41 1.35 1.46 1.47 1.33 1.26 1.31 1.45 1.73 1.89 2.01 2.10 2.30 2.68 2.99 2.98
0.95 0.95 0.91 1.02 1.03 1.11 1.13 1.13 1.21 1.30 1.41 1.49 1.50 1.56 1.59 1.56 1.56 1.62 1.56 1.32 1.20 1.08 1.10 1.03 0.92 0.96 0.98 1.26 1.26 1.15 1.01 0.93 0.90 0.93 0.95 1.09 1.31 1.47 1.64 1.88 2.20 2.54 2.80
0.72 0.77 0.86 0.96 1.01 1.04 1.03 1.06 1.06 1.12 1.26 1.39 1.46 1.63 1.54 1.44 1.47 1.54 1.63 1.59 1.39 1.24 1.24 1.10 0.98 0.92 0.96 1.07 1.04 0.90 0.83 0.74 0.71 0.69 0.67 0.69 0.78 0.90 1.05 1.27 1.53 1.76 1.96
0.71 0.72 0.79 0.86 0.97 1.07 1.10 1.08 1.08 1.16 1.31 1.38 1.51 1.60 1.53 1.49 1.51 1.51 1.62 1.70 1.64 1.46 1.28 1.19 1.08 0.95 0.92 0.92 0.88 0.88 0.85 0.75 0.65 0.60 0.56 0.54 0.57 0.60 0.69 0.85 1.02 1.19 1.30
0.69 0.71 0.76 0.79 0.79 0.84 0.89 0.91 0.98 1.10 1.25 1.32 1.33 1.38 1.43 1.46 1.59 1.55 1.61 1.68 1.73 1.64 1.35 1.27 1.18 0.98 1.03 0.81 0.79 0.82 0.82 0.72 0.57 0.51 0.49 0.49 0.51 0.54 0.56 0.62 0.73 0.87 1.03
0.63 0.66 0.68 0.65 0.62 0.62 0.63 0.69 0.79 0.94 1.01 1.03 1.00 1.04 1.08 1.17 1.30 1.34 1.42 1.49 1.61 1.66 1.40 1.35 1.48 1.36 1.32 1.10 0.94 0.87 0.72 0.68 0.61 0.51 0.45 0.43 0.44 0.48 0.54 0.56 0.57 0.63 0.75
0.56 0.58 0.57 0.56 0.52 0.53 0.60 0.66 0.72 0.79 0.86 0.85 0.84 0.87 0.84 0.92 1.08 1.14 1.22 1.33 1.50 1.69 1.54 1.46 1.61 1.66 1.57 1.37 1.24 1.06 0.79 0.64 0.67 0.63 0.48 0.42 0.41 0.44 0.51 0.55 0.52 0.52 0.57
0.49 0.50 0.53 0.55 0.55 0.61 0.72 0.81 0.86 0.82 0.73 0.66 0.62 0.62 0.62 0.69 0.81 0.94 1.08 1.14 1.26 1.57 1.64 1.52 1.56 1.81 1.79 1.62 1.57 1.31 1.12 1.01 0.75 0.69 0.56 0.46 0.43 0.43 0.48 0.57 0.58 0.54 0.52
0.52 0.56 0.58 0.63 0.68 0.69 0.71 0.75 0.76 0.79 0.74 0.64 0.52 0.45 0.43 0.53 0.66 0.78 0.88 0.99 1.10 1.27 1.47 1.54 1.54 1.76 1.86 1.76 1.86 1.65 1.42 1.25 1.02 0.80 0.72 0.54 0.47 0.49 0.49 0.52 0.57 0.60 0.61
0.43 0.56 0.63 0.66 0.73 0.69 0.62 0.61 0.61 0.56 0.57 0.57 0.52 0.41 0.37 0.40 0.47 0.58 0.64 0.76 0.92 1.07 1.19 1.36 1.48 1.64 1.87 1.89 1.77 1.74 1.57 1.41 1.30 1.19 1.15 0.82 0.56 0.48 0.48 0.50 0.56 0.64 0.71
0.39 0.47 0.48 0.53 0.58 0.51 0.45 0.42 0.43 0.45 0.48 0.50 0.51 0.46 0.40 0.35 0.34 0.39 0.45 0.52 0.61 0.73 0.91 1.12 1.25 1.40 1.64 1.84 1.83 1.85 1.76 1.53 1.41 1.34 1.40 1.41 1.08 0.82 0.66 0.47 0.47 0.57 0.70
0.45 0.48 0.47 0.46 0.48 0.52 0.44 0.37 0.33 0.35 0.41 0.45 0.47 0.47 0.37 0.31 0.32 0.32 0.34 0.37 0.44 0.46 0.54 0.76 0.92 0.99 1.16 1.45 1.77 1.89 1.96 1.81 1.62 1.58 1.59 1.69 1.77 1.51 1.03 0.71 0.62 0.54 0.62
0.62 0.63 0.55 0.52 0.52 0.51 0.45 0.36 0.32 0.30 0.35 0.41 0.46 0.44 0.41 0.37 0.37 0.40 0.43 0.42 0.38 0.37 0.37 0.42 0.52 0.71 0.87 1.12 1.48 1.69 1.93 2.09 1.97 1.88 1.84 1.92 2.00 2.21 1.76 1.20 0.97 0.75 0.70
0.70 0.70 0.65 0.61 0.59 0.56 0.47 0.38 0.36 0.39 0.42 0.43 0.46 0.45 0.44 0.43 0.40 0.34 0.39 0.43 0.39 0.38 0.35 0.37 0.42 0.57 0.76 0.89 1.17 1.50 1.74 1.86 1.93 2.00 2.00 2.07 2.05 2.19 2.51 2.09 1.41 1.01 0.80
0.83 0.79 0.74 0.74 0.74 0.72 0.62 0.46 0.42 0.46 0.51 0.53 0.61 0.60 0.48 0.39 0.38 0.34 0.36 0.43 0.42 0.41 0.44 0.42 0.43 0.47 0.55 0.68 0.88 1.15 1.36 1.54 1.58 1.72 1.67 1.63 1.66 1.79 2.24 2.54 2.20 1.57 1.12

GEFSMA_prec_meanprecacc_162.txt.gz
Total_Precipitation_Accumulation
1.81 1.84 1.78 1.79 1.68 1.88 2.19 2.26 2.16 2.34 2.37 2.18 1.97 1.78 1.69 1.53 1.39 1.43 1.52 1.45 1.33 1.41 1.68 1.79 1.65 1.53 1.43 1.26 1.10 1.04 1.00 0.93 0.88 0.74 0.61 0.58 0.69 0.69 0.58 0.48 0.43 0.38 0.35
2.27 2.30 2.15 2.08 1.94 1.97 2.15 2.27 2.31 2.73 2.60 2.46 2.04 1.84 1.78 1.74 1.60 1.55 1.61 1.72 1.46 1.32 1.44 1.73 1.89 1.85 1.76 1.55 1.37 1.23 1.10 1.00 0.90 0.69 0.57 0.53 0.61 0.71 0.67 0.59 0.49 0.40 0.30
2.39 2.44 2.41 2.27 2.19 2.17 2.29 2.30 2.50 2.73 2.44 2.32 2.04 1.94 1.83 1.70 1.56 1.57 1.74 1.90 1.71 1.48 1.34 1.45 1.74 1.90 1.94 1.92 1.81 1.55 1.27 1.09 0.96 0.75 0.58 0.53 0.57 0.65 0.65 0.66 0.61 0.46 0.31
2.40 2.47 2.27 2.15 2.38 2.47 2.52 2.63 2.71 2.73 2.55 2.46 2.27 1.96 1.81 1.72 1.38 1.39 1.46 1.51 1.62 1.45 1.54 1.67 1.80 1.86 2.03 2.16 2.16 2.09 1.79 1.41 1.16 0.96 0.77 0.65 0.67 0.68 0.62 0.62 0.60 0.48 0.35
2.23 2.36 2.19 2.24 2.45 2.54 2.55 2.36 2.69 2.66 2.60 2.49 2.11 1.86 1.61 1.44 1.31 1.16 1.18 1.11 1.22 1.26 1.34 1.49 1.65 1.65 1.95 2.29 2.45 2.52 2.40 2.01 1.57 1.30 1.18 0.99 0.88 0.78 0.68 0.64 0.60 0.53 0.41
2.28 2.40 2.26 2.33 2.47 2.54 2.49 2.49 2.64 2.65 2.49 2.44 1.99 1.68 1.44 1.17 1.18 1.12 0.96 0.99 1.03 0.97 1.03 1.22 1.50 1.32 1.67 2.02 2.19 2.51 2.73 2.57 2.13 1.77 1.62 1.49 1.34 1.10 0.86 0.77 0.73 0.66 0.54
2.35 2.50 2.38 2.51 2.50 2.34 2.32 2.48 2.62 2.47 2.23 2.39 2.19 1.61 1.22 1.01 1.01 0.97 0.97 1.03 0.97 0.96 1.09 1.34 1.42 1.34 1.31 1.44 1.50 1.81 2.36 2.73 2.64 2.27 1.96 1.77 1.74 1.61 1.21 1.06 0.98 0.88 0.75
2.23 2.19 2.25 2.18 2.21 2.27 2.28 2.33 2.48 2.28 1.92 2.11 2.10 1.85 1.31 1.09 0.91 0.79 0.94 0.96 0.95 1.05 1.11 1.24 1.47 1.59 1.48 1.60 1.33 1.32 1.86 2.48 2.78 2.75 2.40 2.12 2.01 1.92 1.60 1.46 1.26 1.04 0.91
1.89 1.89 1.89 1.99 2.20 2.28 2.22 2.25 2.26 2.12 1.80 1.79 1.92 2.01 1.51 1.14 0.92 0.68 0.72 0.86 1.03 1.19 1.17 1.32 1.43 1.56 1.63 1.78 1.80 1.59 1.54 1.72 2.23 2.82 2.81 2.49 2.17 1.94 1.96 1.99 1.77 1.37 1.07
1.72 1.66 1.66 1.71 1.78 1.83 1.85 1.74 1.85 1.98 1.93 1.74 1.81 1.83 1.66 1.49 1.31 0.91 0.73 0.77 0.93 1.05 1.15 1.16 1.18 1.29 1.56 1.90 2.01 1.77 1.53 1.38 1.55 2.26 2.77 2.80 2.47 2.15 2.12 2.24 2.39 2.05 1.48
1.61 1.54 1.47 1.44 1.37 1.40 1.50 1.52 1.62 1.67 1.69 1.67 1.69 1.75 1.71 1.66 1.60 1.41 1.06 1.00 0.98 0.88 0.95 1.04 1.08 1.14 1.42 1.68 1.83 1.73 1.71 1.51 1.46 1.63 2.01 2.37 2.43 2.33 2.23 2.36 2.71 2.75 2.36
1.39 1.30 1.27 1.29 1.24 1.25 1.32 1.38 1.46 1.42 1.49 1.55 1.57 1.63 1.69 1.67 1.69 1.69 1.39 1.24 1.15 0.97 0.97 0.94 0.95 1.02 1.24 1.42 1.36 1.48 1.48 1.34 1.26 1.31 1.46 1.74 1.91 2.03 2.11 2.32 2.70 3.02 3.04
1.04 1.01 0.96 1.06 1.08 1.15 1.17 1.17 1.24 1.32 1.44 1.51 1.51 1.57 1.60 1.57 1.57 1.63 1.57 1.33 1.21 1.08 1.10 1.03 0.92 0.97 0.98 1.26 1.26 1.16 1.01 0.93 0.91 0.94 0.95 1.10 1.32 1.47 1.65 1.88 2.21 2.55 2.82
0.78 0.83 0.91 1.01 1.07 1.10 1.08 1.10 1.09 1.14 1.28 1.40 1.47 1.64 1.56 1.45 1.48 1.55 1.63 1.59 1.39 1.24 1.24 1.10 0.98 0.93 0.96 1.07 1.04 0.90 0.83 0.74 0.71 0.69 0.67 0.70 0.78 0.90 1.05 1.27 1.53 1.77 1.97
0.80 0.80 0.86 0.94 1.04 1.13 1.14 1.11 1.10 1.18 1.32 1.39 1.52 1.61 1.55 1.51 1.52 1.52 1.62 1.70 1.64 1.46 1.28 1.19 1.08 0.95 0.93 0.92 0.88 0.88 0.85 0.75 0.65 0.60 0.56 0.54 0.57 0.60 0.69 0.85 1.02 1.19 1.30
0.81 0.79 0.83 0.87 0.86 0.90 0.95 0.95 1.00 1.11 1.27 1.33 1.34 1.40 1.45 1.48 1.61 1.56 1.61 1.69 1.73 1.64 1.35 1.27 1.18 0.98 1.03 0.81 0.79 0.82 0.82 0.72 0.57 0.51 0.49 0.49 0.51 0.54 0.57 0.62 0.73 0.87 1.03
0.76 0.75 0.75 0.72 0.68 0.67 0.68 0.73 0.82 0.96 1.03 1.04 1.02 1.05 1.10 1.19 1.32 1.35 1.42 1.49 1.61 1.66 1.40 1.35 1.48 1.36 1.32 1.10 0.94 0.87 0.73 0.68 0.61 0.52 0.45 0.44 0.45 0.49 0.54 0.56 0.57 0.63 0.75
0.65 0.68 0.66 0.64 0.59 0.59 0.65 0.69 0.75 0.82 0.89 0.87 0.86 0.88 0.85 0.94 1.09 1.15 1.23 1.34 1.50 1.69 1.54 1.46 1.61 1.66 1.57 1.37 1.24 1.07 0.80 0.65 0.68 0.64 0.49 0.42 0.41 0.44 0.51 0.55 0.52 0.52 0.57
0.55 0.57 0.60 0.61 0.61 0.67 0.77 0.85 0.89 0.85 0.75 0.68 0.64 0.63 0.63 0.71 0.83 0.95 1.09 1.15 1.26 1.57 1.64 1.52 1.56 1.81 1.79 1.62 1.57 1.31 1.12 1.01 0.75 0.70 0.56 0.46 0.43 0.43 0.48 0.57 0.58 0.54 0.52
0.59 0.63 0.65 0.69 0.74 0.75 0.77 0.81 0.81 0.83 0.77 0.66 0.54 0.46 0.45 0.54 0.67 0.79 0.89 1.00 1.11 1.28 1.48 1.54 1.54 1.76 1.86 1.76 1.86 1.65 1.42 1.25 1.02 0.80 0.72 0.54 0.47 0.49 0.49 0.52 0.57 0.60 0.61
0.51 0.63 0.70 0.73 0.81 0.75 0.67 0.66 0.66 0.61 0.61 0.61 0.54 0.43 0.38 0.42 0.49 0.60 0.66 0.78 0.94 1.09 1.20 1.37 1.49 1.65 1.88 1.89 1.77 1.74 1.57 1.41 1.30 1.19 1.15 0.82 0.56 0.48 0.48 0.50 0.56 0.64 0.71
0.46 0.54 0.54 0.59 0.65 0.58 0.51 0.49 0.49 0.49 0.51 0.53 0.53 0.50 0.43 0.39 0.37 0.42 0.47 0.54 0.63 0.74 0.92 1.13 1.26 1.41 1.65 1.84 1.83 1.85 1.76 1.53 1.41 1.34 1.41 1.41 1.08 0.83 0.66 0.47 0.47 0.57 0.70
0.50 0.53 0.52 0.51 0.53 0.60 0.51 0.44 0.40 0.40 0.45 0.48 0.49 0.49 0.39 0.34 0.34 0.34 0.35 0.39 0.45 0.46 0.54 0.76 0.92 0.99 1.16 1.46 1.77 1.90 1.97 1.82 1.62 1.58 1.60 1.70 1.77 1.51 1.03 0.71 0.62 0.54 0.62
0.65 0.65 0.58 0.56 0.57 0.57 0.55 0.46 0.42 0.37 0.40 0.45 0.48 0.46 0.43 0.40 0.40 0.43 0.44 0.43 0.38 0.37 0.38 0.42 0.52 0.72 0.88 1.12 1.49 1.70 1.94 2.10 1.98 1.88 1.84 1.92 2.00 2.21 1.76 1.20 0.97 0.76 0.71
0.73 0.73 0.68 0.66 0.64 0.63 0.56 0.47 0.46 0.46 0.48 0.48 0.50 0.49 0.47 0.45 0.43 0.38 0.41 0.44 0.39 0.38 0.36 0.39 0.43 0.58 0.77 0.90 1.18 1.51 1.75 1.87 1.93 2.00 2.00 2.07 2.05 2.19 2.51 2.09 1.41 1.01 0.80
0.90 0.86 0.80 0.81 0.81 0.80 0.70 0.55 0.53 0.54 0.57 0.58 0.66 0.64 0.52 0.42 0.41 0.37 0.38 0.44 0.43 0.42 0.45 0.44 0.45 0.50 0.58 0.72 0.92 1.19 1.40 1.57 1.61 1.74 1.69 1.64 1.67 1.80 2.25 2.54 2.20 1.57 1.12

GEFSMA_prec_meanprecacc_168.txt.gz
Total_Precipitation_Accumulation
1.82 1.85 1.79 1.80 1.69 1.89 2.21 2.28 2.19 2.38 2.41 2.21 1.98 1.79 1.70 1.55 1.41 1.44 1.54 1.47 1.36 1.45 1.72 1.83 1.68 1.56 1.46 1.29 1.13 1.07 1.03 0.95 0.90 0.76 0.63 0.61 0.71 0.70 0.59 0.50 0.44 0.39 0.37
2.27 2.31 2.16 2.09 1.95 1.99 2.17 2.29 2.33 2.78 2.66 2.50 2.06 1.85 1.79 1.76 1.62 1.57 1.63 1.74 1.47 1.34 1.47 1.76 1.91 1.88 1.78 1.59 1.39 1.25 1.12 1.03 0.92 0.71 0.59 0.55 0.63 0.73 0.69 0.61 0.51 0.41 0.31
2.40 2.46 2.43 2.28 2.21 2.19 2.31 2.33 2.53 2.78 2.48 2.35 2.07 1.96 1.86 1.74 1.59 1.60 1.78 1.94 1.74 1.50 1.35 1.46 1.76 1.92 1.96 1.96 1.84 1.57 1.30 1.11 0.97 0.76 0.60 0.55 0.58 0.67 0.67 0.68 0.63 0.47 0.32
2.44 2.51 2.31 2.18 2.41 2.50 2.56 2.67 2.75 2.77 2.60 2.51 2.33 2.01 1.86 1.77 1.42 1.42 1.49 1.55 1.67 1.49 1.57 1.68 1.82 1.88 2.06 2.19 2.20 2.14 1.83 1.43 1.18 0.98 0.78 0.67 0.68 0.70 0.64 0.63 0.62 0.49 0.35
2.26 2.41 2.25 2.29 2.48 2.57 2.60 2.39 2.72 2.70 2.67 2.59 2.19 1.93 1.66 1.49 1.34 1.19 1.20 1.14 1.25 1.30 1.39 1.53 1.67 1.67 1.98 2.34 2.51 2.59 2.45 2.04 1.59 1.32 1.20 1.01 0.90 0.80 0.70 0.66 0.61 0.55 0.42
2.32 2.47 2.32 2.39 2.50 2.58 2.55 2.56 2.71 2.72 2.56 2.54 2.04 1.74 1.49 1.20 1.21 1.15 0.99 1.02 1.06 0.99 1.06 1.27 1.56 1.36 1.70 2.05 2.24 2.55 2.77 2.62 2.17 1.80 1.64 1.51 1.36 1.12 0.87 0.78 0.74 0.67 0.55
2.40 2.57 2.45 2.57 2.56 2.41 2.39 2.55 2.70 2.54 2.30 2.47 2.29 1.69 1.26 1.04 1.05 0.99 1.00 1.07 1.00 0.98 1.13 1.39 1.49 1.41 1.36 1.46 1.52 1.83 2.39 2.77 2.68 2.30 1.97 1.79 1.76 1.63 1.22 1.07 0.99 0.88 0.76
2.30 2.25 2.32 2.25 2.28 2.35 2.35 2.40 2.56 2.38 2.00 2.19 2.19 1.94 1.38 1.15 0.94 0.80 0.96 0.99 0.96 1.07 1.13 1.27 1.52 1.66 1.54 1.65 1.36 1.32 1.87 2.51 2.81 2.77 2.42 2.13 2.03 1.94 1.61 1.47 1.27 1.05 0.92
1.96 1.95 1.95 2.06 2.28 2.34 2.30 2.33 2.34 2.20 1.88 1.86 1.99 2.09 1.59 1.21 0.97 0.71 0.74 0.88 1.04 1.23 1.20 1.34 1.45 1.61 1.69 1.86 1.86 1.62 1.55 1.74 2.25 2.84 2.83 2.51 2.19 1.95 1.97 2.00 1.79 1.38 1.08
1.81 1.74 1.74 1.80 1.86 1.89 1.92 1.81 1.92 2.05 2.02 1.82 1.88 1.88 1.71 1.52 1.36 0.95 0.75 0.78 0.95 1.09 1.19 1.18 1.19 1.32 1.60 1.96 2.05 1.79 1.54 1.39 1.56 2.27 2.79 2.82 2.49 2.17 2.13 2.26 2.41 2.07 1.50
1.69 1.63 1.55 1.53 1.45 1.46 1.57 1.59 1.68 1.75 1.77 1.74 1.76 1.80 1.75 1.69 1.62 1.45 1.10 1.03 1.01 0.90 0.98 1.06 1.10 1.16 1.45 1.71 1.87 1.75 1.71 1.51 1.46 1.64 2.02 2.38 2.45 2.34 2.25 2.37 2.73 2.78 2.39
1.50 1.40 1.35 1.37 1.33 1.33 1.40 1.46 1.53 1.50 1.57 1.62 1.63 1.67 1.72 1.69 1.70 1.72 1.42 1.28 1.19 1.00 0.99 0.96 0.98 1.03 1.25 1.42 1.37 1.48 1.49 1.34 1.26 1.31 1.47 1.75 1.92 2.04 2.11 2.32 2.70 3.03 3.05
1.17 1.10 1.04 1.15 1.18 1.24 1.27 1.26 1.32 1.40 1.51 1.57 1.57 1.61 1.63 1.59 1.58 1.64 1.59 1.36 1.24 1.10 1.12 1.05 0.94 0.97 0.98 1.26 1.27 1.16 1.02 0.93 0.91 0.94 0.95 1.10 1.32 1.48 1.65 1.89 2.22 2.56 2.83
0.90 0.94 1.01 1.10 1.17 1.19 1.15 1.18 1.16 1.20 1.33 1.46 1.50 1.68 1.59 1.46 1.49 1.56 1.65 1.62 1.42 1.26 1.26 1.12 0.99 0.93 0.96 1.07 1.04 0.90 0.83 0.74 0.71 0.69 0.67 0.70 0.78 0.91 1.06 1.27 1.54 1.77 1.97
0.92 0.92 0.95 1.02 1.11 1.21 1.21 1.18 1.16 1.23 1.37 1.44 1.55 1.65 1.58 1.53 1.54 1.53 1.63 1.72 1.67 1.48 1.29 1.20 1.08 0.96 0.93 0.92 0.89 0.88 0.86 0.75 0.65 0.60 0.56 0.54 0.57 0.60 0.69 0.85 1.02 1.19 1.30
0.92 0.89 0.91 0.94 0.93 0.97 1.04 1.04 1.08 1.17 1.32 1.38 1.39 1.44 1.49 1.52 1.64 1.58 1.62 1.70 1.75 1.66 1.36 1.27 1.18 0.98 1.03 0.81 0.79 0.82 0.83 0.73 0.58 0.51 0.49 0.49 0.51 0.55 0.57 0.62 0.73 0.88 1.03
0.84 0.83 0.83 0.78 0.74 0.73 0.76 0.83 0.92 1.04 1.08 1.09 1.06 1.10 1.15 1.23 1.36 1.38 1.44 1.51 1.62 1.67 1.42 1.37 1.49 1.36 1.33 1.11 0.95 0.87 0.73 0.69 0.62 0.52 0.46 0.44 0.45 0.49 0.55 0.57 0.57 0.64 0.75
0.73 0.75 0.73 0.69 0.64 0.64 0.72 0.76 0.83 0.89 0.95 0.93 0.92 0.93 0.90 0.98 1.13 1.17 1.25 1.35 1.51 1.71 1.56 1.49 1.62 1.66 1.57 1.38 1.25 1.08 0.81 0.65 0.68 0.64 0.49 0.43 0.41 0.44 0.51 0.55 0.53 0.53 0.57
0.61 0.63 0.66 0.67 0.67 0.72 0.82 0.91 0.96 0.90 0.80 0.74 0.70 0.68 0.67 0.74 0.86 0.98 1.11 1.17 1.28 1.59 1.66 1.53 1.58 1.82 1.80 1.63 1.58 1.32 1.12 1.02 0.76 0.70 0.57 0.46 0.44 0.44 0.49 0.57 0.58 0.54 0.52
0.64 0.69 0.71 0.76 0.80 0.82 0.82 0.86 0.86 0.88 0.82 0.70 0.57 0.49 0.47 0.56 0.69 0.82 0.92 1.03 1.15 1.31 1.51 1.57 1.57 1.78 1.88 1.77 1.87 1.66 1.42 1.26 1.03 0.80 0.72 0.54 0.48 0.49 0.49 0.52 0.57 0.60 0.62
0.57 0.69 0.77 0.80 0.87 0.81 0.72 0.72 0.73 0.67 0.67 0.66 0.58 0.46 0.41 0.44 0.51 0.63 0.68 0.81 0.97 1.13 1.24 1.40 1.52 1.67 1.90 1.91 1.78 1.76 1.59 1.42 1.31 1.19 1.16 0.83 0.57 0.49 0.48 0.50 0.56 0.64 0.71
0.54 0.62 0.62 0.67 0.73 0.63 0.56 0.55 0.57 0.58 0.59 0.60 0.58 0.54 0.46 0.41 0.40 0.45 0.50 0.57 0.66 0.78 0.96 1.17 1.29 1.43 1.67 1.87 1.85 1.87 1.78 1.54 1.42 1.35 1.41 1.42 1.09 0.84 0.67 0.49 0.49 0.58 0.71
0.59 0.62 0.61 0.61 0.62 0.68 0.59 0.51 0.48 0.49 0.54 0.57 0.56 0.55 0.43 0.36 0.39 0.39 0.41 0.43 0.49 0.49 0.57 0.79 0.94 1.01 1.18 1.48 1.80 1.92 1.99 1.84 1.64 1.60 1.62 1.71 1.79 1.53 1.04 0.73 0.63 0.55 0.63
0.74 0.74 0.67 0.65 0.66 0.65 0.62 0.54 0.50 0.44 0.47 0.51 0.54 0.51 0.49 0.45 0.45 0.49 0.50 0.47 0.41 0.40 0.41 0.45 0.54 0.73 0.89 1.14 1.51 1.72 1.96 2.13 2.00 1.90 1.87 1.94 2.01 2.22 1.77 1.21 0.98 0.76 0.71
0.82 0.82 0.77 0.74 0.74 0.71 0.64 0.55 0.54 0.53 0.53 0.53 0.56 0.56 0.55 0.53 0.52 0.47 0.49 0.51 0.44 0.42 0.40 0.42 0.46 0.61 0.80 0.92 1.20 1.54 1.78 1.89 1.96 2.03 2.03 2.09 2.07 2.21 2.53 2.11 1.43 1.04 0.82
0.96 0.93 0.87 0.88 0.90 0.90 0.80 0.66 0.63 0.62 0.64 0.65 0.73 0.70 0.59 0.51 0.51 0.47 0.45 0.51 0.50 0.49 0.53 0.52 0.52 0.56 0.63 0.75 0.96 1.23 1.45 1.62 1.66 1.79 1.72 1.68 1.71 1.84 2.28 2.57 2.23 1.61 1.15

GEFSMA_prec_meanprecacc_174.txt.gz
Total_Precipitation_Accumulation
1.90 1.94 1.88 1.88 1.75 1.94 2.27 2.37 2.25 2.46 2.47 2.25 2.01 1.81 1.72 1.57 1.44 1.46 1.55 1.47 1.37 1.46 1.73 1.83 1.69 1.57 1.46 1.30 1.14 1.07 1.03 0.95 0.90 0.76 0.64 0.61 0.72 0.70 0.59 0.50 0.44 0.39 0.38
2.35 2.39 2.23 2.16 2.01 2.03 2.22 2.35 2.38 2.85 2.71 2.54 2.09 1.87 1.81 1.79 1.66 1.62 1.66 1.75 1.47 1.34 1.47 1.76 1.92 1.88 1.79 1.59 1.40 1.26 1.13 1.03 0.93 0.71 0.59 0.55 0.64 0.73 0.69 0.61 0.51 0.41 0.32
2.46 2.52 2.49 2.34 2.25 2.22 2.36 2.39 2.58 2.82 2.54 2.41 2.12 2.00 1.90 1.77 1.62 1.63 1.82 1.99 1.77 1.50 1.35 1.47 1.76 1.92 1.96 1.97 1.85 1.58 1.30 1.11 0.98 0.77 0.60 0.56 0.60 0.68 0.68 0.68 0.63 0.47 0.32
2.48 2.55 2.37 2.25 2.45 2.54 2.61 2.73 2.80 2.82 2.68 2.59 2.40 2.09 1.92 1.83 1.45 1.44 1.52 1.61 1.74 1.52 1.58 1.68 1.82 1.88 2.06 2.19 2.21 2.15 1.84 1.43 1.19 0.99 0.79 0.68 0.69 0.71 0.66 0.64 0.62 0.50 0.36
2.29 2.44 2.30 2.36 2.53 2.62 2.64 2.42 2.78 2.76 2.76 2.69 2.26 2.00 1.72 1.54 1.41 1.23 1.22 1.18 1.31 1.36 1.44 1.54 1.68 1.68 1.98 2.34 2.52 2.60 2.47 2.05 1.60 1.33 1.20 1.01 0.90 0.80 0.71 0.67 0.62 0.55 0.42
2.36 2.50 2.36 2.44 2.54 2.63 2.62 2.62 2.79 2.78 2.63 2.62 2.09 1.82 1.56 1.25 1.26 1.20 1.02 1.06 1.11 1.04 1.12 1.32 1.60 1.37 1.71 2.06 2.25 2.56 2.78 2.63 2.17 1.81 1.65 1.52 1.36 1.12 0.88 0.78 0.74 0.68 0.55
2.45 2.63 2.51 2.65 2.61 2.47 2.45 2.60 2.76 2.59 2.36 2.51 2.37 1.80 1.36 1.09 1.09 1.04 1.05 1.11 1.03 1.01 1.17 1.45 1.57 1.49 1.39 1.47 1.52 1.84 2.39 2.77 2.69 2.30 1.98 1.80 1.76 1.64 1.22 1.07 0.99 0.89 0.77
2.35 2.29 2.39 2.30 2.33 2.42 2.42 2.47 2.63 2.45 2.08 2.24 2.28 2.08 1.52 1.26 1.02 0.84 1.00 1.02 0.98 1.10 1.15 1.30 1.56 1.73 1.60 1.70 1.38 1.33 1.88 2.52 2.82 2.78 2.43 2.14 2.03 1.95 1.62 1.48 1.28 1.05 0.92
2.00 2.02 2.01 2.11 2.35 2.39 2.36 2.41 2.41 2.27 1.97 1.93 2.06 2.19 1.73 1.35 1.08 0.78 0.77 0.91 1.08 1.27 1.21 1.36 1.48 1.64 1.72 1.92 1.91 1.63 1.56 1.75 2.27 2.85 2.84 2.52 2.19 1.96 1.98 2.01 1.80 1.39 1.09
1.88 1.82 1.82 1.88 1.93 1.94 2.01 1.86 1.97 2.11 2.11 1.91 1.94 1.93 1.77 1.61 1.47 1.08 0.85 0.86 1.03 1.14 1.21 1.20 1.21 1.34 1.62 1.99 2.09 1.80 1.54 1.39 1.57 2.29 2.81 2.84 2.51 2.18 2.14 2.27 2.42 2.09 1.52
1.78 1.72 1.64 1.61 1.52 1.52 1.65 1.66 1.78 1.82 1.82 1.80 1.82 1.86 1.81 1.76 1.68 1.55 1.25 1.13 1.07 0.93 0.99 1.08 1.12 1.19 1.47 1.73 1.89 1.75 1.71 1.51 1.47 1.64 2.03 2.39 2.46 2.36 2.26 2.38 2.74 2.80 2.41
1.60 1.51 1.46 1.48 1.41 1.40 1.48 1.54 1.62 1.59 1.63 1.70 1.71 1.75 1.80 1.74 1.75 1.77 1.48 1.37 1.27 1.04 1.02 0.98 1.00 1.05 1.27 1.44 1.38 1.49 1.49 1.35 1.26 1.32 1.47 1.75 1.92 2.05 2.13 2.34 2.71 3.04 3.07
1.24 1.18 1.14 1.25 1.27 1.34 1.36 1.36 1.42 1.50 1.59 1.66 1.63 1.67 1.69 1.62 1.61 1.67 1.64 1.42 1.31 1.15 1.16 1.08 0.96 1.00 1.01 1.28 1.28 1.16 1.02 0.93 0.91 0.94 0.95 1.10 1.32 1.48 1.66 1.90 2.23 2.57 2.84
0.96 1.02 1.13 1.20 1.25 1.29 1.25 1.29 1.26 1.29 1.42 1.53 1.55 1.75 1.66 1.50 1.52 1.59 1.69 1.68 1.49 1.32 1.32 1.15 1.01 0.94 0.98 1.09 1.05 0.90 0.83 0.74 0.71 0.69 0.67 0.70 0.78 0.91 1.06 1.28 1.55 1.77 1.97
0.99 1.00 1.05 1.12 1.20 1.31 1.31 1.30 1.26 1.32 1.47 1.51 1.61 1.72 1.65 1.58 1.58 1.55 1.67 1.78 1.74 1.55 1.35 1.23 1.09 0.96 0.94 0.93 0.89 0.89 0.87 0.76 0.66 0.60 0.56 0.55 0.57 0.61 0.70 0.86 1.03 1.20 1.31
1.02 0.99 1.01 1.04 1.04 1.08 1.14 1.16 1.18 1.27 1.44 1.47 1.47 1.54 1.57 1.59 1.70 1.62 1.67 1.76 1.81 1.72 1.41 1.30 1.20 0.98 1.04 0.82 0.80 0.83 0.85 0.75 0.59 0.52 0.50 0.50 0.52 0.56 0.58 0.63 0.73 0.88 1.03
0.96 0.94 0.93 0.89 0.85 0.82 0.85 0.94 1.02 1.15 1.20 1.21 1.15 1.21 1.24 1.32 1.44 1.44 1.48 1.55 1.67 1.73 1.47 1.39 1.50 1.38 1.34 1.12 0.96 0.88 0.74 0.70 0.63 0.53 0.46 0.45 0.46 0.50 0.56 0.57 0.57 0.64 0.75
0.83 0.85 0.84 0.80 0.72 0.73 0.82 0.87 0.94 1.05 1.12 1.12 1.08 1.09 1.04 1.09 1.22 1.24 1.31 1.39 1.55 1.75 1.60 1.52 1.65 1.69 1.60 1.40 1.27 1.09 0.81 0.66 0.69 0.65 0.50 0.43 0.42 0.45 0.52 0.56 0.53 0.53 0.57
0.73 0.75 0.77 0.77 0.75 0.81 0.93 1.03 1.10 1.07 0.98 0.94 0.89 0.84 0.81 0.86 0.95 1.05 1.17 1.23 1.33 1.62 1.69 1.57 1.61 1.86 1.83 1.65 1.61 1.33 1.13 1.02 0.76 0.70 0.57 0.47 0.44 0.45 0.49 0.57 0.58 0.54 0.52
0.75 0.80 0.82 0.85 0.90 0.92 0.93 0.98 1.00 1.03 0.99 0.86 0.71 0.61 0.58 0.67 0.79 0.91 1.00 1.10 1.21 1.36 1.55 1.61 1.61 1.82 1.91 1.80 1.90 1.69 1.44 1.28 1.03 0.81 0.72 0.54 0.48 0.50 0.50 0.53 0.57 0.61 0.62
0.68 0.81 0.89 0.91 0.98 0.92 0.81 0.84 0.87 0.81 0.84 0.81 0.70 0.56 0.48 0.50 0.60 0.72 0.75 0.89 1.05 1.20 1.31 1.47 1.57 1.72 1.95 1.97 1.83 1.78 1.61 1.45 1.33 1.21 1.17 0.84 0.58 0.50 0.50 0.51 0.57 0.65 0.72
0.68 0.77 0.76 0.80 0.85 0.71 0.64 0.63 0.68 0.72 0.73 0.73 0.71 0.64 0.54 0.47 0.48 0.51 0.55 0.62 0.72 0.85 1.03 1.24 1.35 1.50 1.73 1.92 1.90 1.91 1.82 1.59 1.46 1.37 1.44 1.44 1.11 0.86 0.69 0.50 0.50 0.59 0.72
0.72 0.75 0.73 0.73 0.73 0.79 0.69 0.58 0.56 0.59 0.67 0.69 0.68 0.66 0.52 0.42 0.46 0.45 0.46 0.47 0.52 0.53 0.61 0.85 1.00 1.06 1.25 1.55 1.86 1.97 2.04 1.89 1.69 1.64 1.67 1.76 1.82 1.56 1.06 0.75 0.66 0.57 0.64
0.86 0.86 0.78 0.79 0.80 0.77 0.72 0.62 0.58 0.54 0.58 0.64 0.68 0.67 0.63 0.58 0.54 0.56 0.59 0.55 0.48 0.46 0.46 0.49 0.59 0.79 0.96 1.21 1.58 1.77 2.02 2.19 2.06 1.95 1.93 1.99 2.05 2.25 1.79 1.23 1.01 0.79 0.74
0.94 0.96 0.91 0.91 0.91 0.87 0.78 0.65 0.63 0.61 0.64 0.66 0.71 0.70 0.69 0.66 0.63 0.56 0.59 0.60 0.53 0.50 0.48 0.48 0.50 0.64 0.83 0.96 1.25 1.59 1.83 1.96 2.02 2.08 2.11 2.16 2.13 2.26 2.57 2.14 1.46 1.07 0.85
1.08 1.08 1.06 1.05 1.06 1.04 0.95 0.80 0.75 0.70 0.73 0.76 0.85 0.84 0.72 0.63 0.64 0.57 0.53 0.59 0.58 0.57 0.61 0.58 0.58 0.62 0.69 0.82 1.04 1.31 1.52 1.70 1.74 1.86 1.78 1.74 1.77 1.90 2.33 2.59 2.25 1.63 1.17

GEFSMA_prec_meanprecacc_180.txt.gz
Total_Precipitation_Accumulation
1.91 1.95 1.89 1.89 1.75 1.95 2.28 2.38 2.27 2.49 2.53 2.31 2.07 1.86 1.79 1.64 1.50 1.50 1.57 1.48 1.38 1.46 1.73 1.84 1.69 1.58 1.47 1.30 1.15 1.08 1.03 0.96 0.91 0.77 0.64 0.62 0.72 0.70 0.59 0.51 0.46 0.40 0.38
2.36 2.39 2.24 2.17 2.03 2.04 2.24 2.37 2.40 2.88 2.76 2.60 2.14 1.92 1.86 1.84 1.70 1.66 1.68 1.76 1.48 1.35 1.47 1.77 1.92 1.88 1.79 1.59 1.40 1.26 1.13 1.04 0.94 0.73 0.60 0.56 0.64 0.73 0.69 0.62 0.52 0.42 0.32
2.47 2.52 2.50 2.35 2.27 2.24 2.38 2.41 2.60 2.84 2.57 2.45 2.17 2.05 1.94 1.83 1.67 1.66 1.83 2.00 1.77 1.51 1.36 1.47 1.77 1.93 1.97 1.98 1.86 1.59 1.31 1.12 0.99 0.78 0.62 0.57 0.61 0.69 0.69 0.69 0.63 0.48 0.33
2.48 2.56 2.38 2.26 2.46 2.55 2.62 2.74 2.81 2.85 2.71 2.63 2.44 2.14 1.96 1.89 1.50 1.47 1.54 1.61 1.75 1.53 1.58 1.69 1.83 1.90 2.08 2.20 2.22 2.17 1.87 1.45 1.20 0.99 0.80 0.69 0.71 0.72 0.67 0.65 0.63 0.50 0.36
2.30 2.45 2.31 2.37 2.54 2.63 2.66 2.43 2.79 2.78 2.79 2.72 2.29 2.03 1.77 1.62 1.49 1.27 1.25 1.20 1.33 1.37 1.44 1.55 1.69 1.69 1.99 2.35 2.52 2.62 2.49 2.08 1.61 1.34 1.21 1.02 0.91 0.81 0.71 0.67 0.63 0.55 0.43
2.37 2.52 2.37 2.45 2.56 2.65 2.64 2.66 2.83 2.80 2.65 2.65 2.13 1.86 1.61 1.30 1.32 1.25 1.06 1.08 1.14 1.05 1.13 1.33 1.61 1.38 1.72 2.07 2.26 2.58 2.81 2.65 2.20 1.83 1.67 1.53 1.38 1.13 0.88 0.79 0.75 0.69 0.56
2.46 2.65 2.53 2.66 2.63 2.49 2.46 2.62 2.80 2.63 2.41 2.54 2.43 1.86 1.40 1.15 1.14 1.09 1.08 1.15 1.07 1.05 1.19 1.47 1.59 1.50 1.40 1.48 1.54 1.86 2.42 2.80 2.72 2.33 2.00 1.81 1.77 1.64 1.23 1.07 1.00 0.90 0.77
2.38 2.33 2.42 2.32 2.34 2.44 2.44 2.49 2.67 2.49 2.12 2.26 2.32 2.14 1.58 1.33 1.08 0.89 1.05 1.07 1.05 1.16 1.20 1.33 1.60 1.77 1.63 1.72 1.39 1.35 1.91 2.55 2.86 2.82 2.45 2.15 2.04 1.95 1.63 1.48 1.28 1.06 0.92
2.03 2.06 2.06 2.14 2.38 2.41 2.38 2.43 2.45 2.30 2.00 1.97 2.09 2.22 1.76 1.38 1.10 0.81 0.81 0.96 1.14 1.30 1.27 1.41 1.52 1.68 1.76 1.94 1.93 1.65 1.58 1.76 2.30 2.89 2.87 2.54 2.21 1.96 1.99 2.02 1.81 1.39 1.09
1.90 1.85 1.85 1.91 1.97 1.98 2.05 1.89 2.00 2.13 2.14 1.94 1.98 1.96 1.81 1.64 1.48 1.11 0.89 0.90 1.07 1.18 1.26 1.24 1.25 1.38 1.66 2.02 2.12 1.82 1.56 1.40 1.59 2.32 2.84 2.86 2.52 2.19 2.15 2.27 2.43 2.09 1.52
1.81 1.75 1.67 1.65 1.57 1.58 1.70 1.70 1.81 1.85 1.85 1.82 1.84 1.88 1.84 1.79 1.70 1.56 1.27 1.16 1.10 0.96 1.02 1.12 1.17 1.24 1.50 1.76 1.91 1.78 1.73 1.53 1.48 1.66 2.06 2.42 2.48 2.37 2.27 2.39 2.75 2.82 2.43
1.66 1.56 1.52 1.53 1.46 1.47 1.55 1.58 1.66 1.62 1.66 1.72 1.73 1.78 1.83 1.76 1.77 1.78 1.49 1.38 1.29 1.06 1.04 1.01 1.04 1.10 1.31 1.49 1.42 1.52 1.52 1.36 1.28 1.33 1.48 1.78 1.95 2.06 2.14 2.35 2.73 3.07 3.09
1.30 1.25 1.22 1.32 1.33 1.40 1.42 1.43 1.48 1.53 1.62 1.69 1.65 1.70 1.71 1.64 1.63 1.69 1.65 1.43 1.32 1.16 1.18 1.11 1.00 1.04 1.05 1.33 1.31 1.18 1.03 0.95 0.92 0.95 0.97 1.11 1.34 1.49 1.67 1.91 2.24 2.59 2.86
1.02 1.10 1.23 1.29 1.33 1.37 1.32 1.37 1.33 1.34 1.47 1.57 1.58 1.78 1.68 1.52 1.54 1.61 1.71 1.70 1.52 1.34 1.35 1.20 1.05 0.99 1.02 1.14 1.08 0.92 0.85 0.76 0.73 0.71 0.69 0.71 0.79 0.92 1.07 1.29 1.56 1.79 1.99
1.07 1.10 1.18 1.27 1.32 1.41 1.41 1.39 1.33 1.38 1.54 1.57 1.66 1.77 1.67 1.60 1.59 1.58 1.70 1.83 1.79 1.59 1.38 1.26 1.12 0.99 0.96 0.96 0.92 0.91 0.89 0.78 0.67 0.62 0.57 0.56 0.58 0.63 0.72 0.87 1.05 1.21 1.32
1.12 1.09 1.11 1.16 1.13 1.15 1.23 1.26 1.27 1.35 1.52 1.54 1.52 1.59 1.61 1.62 1.73 1.66 1.70 1.81 1.88 1.79 1.46 1.33 1.22 1.00 1.05 0.83 0.82 0.85 0.87 0.77 0.60 0.53 0.51 0.51 0.53 0.57 0.59 0.65 0.75 0.89 1.04
1.08 1.04 1.03 1.00 0.94 0.91 0.95 1.05 1.13 1.27 1.31 1.31 1.24 1.28 1.30 1.38 1.50 1.48 1.53 1.61 1.73 1.79 1.52 1.41 1.52 1.39 1.35 1.13 0.97 0.90 0.76 0.72 0.64 0.54 0.48 0.46 0.47 0.51 0.57 0.58 0.58 0.64 0.76
0.91 0.92 0.92 0.88 0.83 0.85 0.92 0.97 1.05 1.17 1.23 1.21 1.19 1.21 1.16 1.19 1.30 1.31 1.38 1.45 1.60 1.79 1.64 1.55 1.66 1.70 1.61 1.41 1.28 1.10 0.83 0.68 0.71 0.66 0.51 0.44 0.43 0.46 0.53 0.56 0.53 0.53 0.58
0.81 0.83 0.85 0.85 0.83 0.89 1.02 1.13 1.21 1.19 1.09 1.05 1.02 1.01 0.99 1.02 1.07 1.12 1.23 1.28 1.38 1.66 1.73 1.60 1.63 1.88 1.84 1.66 1.63 1.36 1.15 1.04 0.77 0.72 0.59 0.48 0.46 0.46 0.50 0.58 0.59 0.55 0.53
0.82 0.87 0.90 0.94 0.99 1.02 1.02 1.07 1.11 1.15 1.11 0.97 0.83 0.74 0.70 0.78 0.87 0.97 1.07 1.17 1.27 1.43 1.60 1.65 1.63 1.84 1.92 1.81 1.92 1.71 1.46 1.30 1.05 0.83 0.75 0.57 0.50 0.51 0.51 0.54 0.58 0.62 0.63
0.77 0.90 1.00 1.04 1.11 1.04 0.91 0.94 1.00 0.94 0.97 0.93 0.81 0.65 0.55 0.57 0.66 0.79 0.81 0.95 1.12 1.26 1.36 1.51 1.60 1.74 1.96 1.99 1.85 1.81 1.64 1.48 1.36 1.23 1.19 0.86 0.59 0.52 0.51 0.53 0.58 0.66 0.73
0.77 0.86 0.87 0.95 1.00 0.84 0.76 0.74 0.78 0.81 0.84 0.83 0.80 0.73 0.63 0.57 0.55 0.59 0.62 0.69 0.78 0.90 1.07 1.28 1.38 1.51 1.75 1.95 1.94 1.96 1.86 1.64 1.49 1.39 1.46 1.46 1.12 0.88 0.71 0.52 0.52 0.61 0.74
0.80 0.83 0.82 0.84 0.87 0.95 0.83 0.70 0.66 0.68 0.75 0.77 0.75 0.72 0.58 0.48 0.52 0.53 0.55 0.56 0.60 0.60 0.67 0.89 1.02 1.08 1.27 1.58 1.90 2.00 2.07 1.92 1.71 1.67 1.71 1.78 1.84 1.59 1.10 0.78 0.69 0.60 0.67
0.92 0.92 0.85 0.86 0.87 0.87 0.85 0.74 0.69 0.63 0.66 0.72 0.75 0.74 0.71 0.66 0.61 0.65 0.67 0.64 0.55 0.53 0.54 0.56 0.63 0.82 0.99 1.24 1.62 1.81 2.06 2.22 2.09 1.98 1.98 2.04 2.08 2.28 1.82 1.26 1.04 0.82 0.76
1.00 1.02 0.98 0.97 0.96 0.94 0.87 0.74 0.71 0.67 0.70 0.73 0.78 0.77 0.76 0.72 0.70 0.67 0.70 0.72 0.64 0.62 0.60 0.59 0.59 0.71 0.89 1.02 1.29 1.63 1.87 2.00 2.05 2.12 2.15 2.21 2.16 2.30 2.60 2.17 1.48 1.10 0.88
1.15 1.16 1.15 1.13 1.13 1.11 1.04 0.89 0.82 0.76 0.80 0.83 0.92 0.91 0.79 0.69 0.72 0.68 0.64 0.70 0.70 0.72 0.76 0.72 0.70 0.72 0.78 0.90 1.11 1.36 1.56 1.75 1.78 1.89 1.81 1.78 1.80 1.94 2.37 2.62 2.27 1.65 1.20

GEFSMA_prec_meanprecacc_186.txt.gz
Total_Precipitation_Accumulation
1.91 1.95 1.89 1.90 1.76 1.95 2.28 2.38 2.28 2.49 2.55 2.33 2.08 1.87 1.80 1.66 1.51 1.50 1.58 1.50 1.40 1.48 1.75 1.86 1.71 1.59 1.47 1.30 1.15 1.08 1.04 0.96 0.93 0.79 0.65 0.62 0.72 0.71 0.60 0.52 0.47 0.40 0.39
2.36 2.40 2.24 2.17 2.03 2.04 2.24 2.38 2.41 2.90 2.79 2.63 2.16 1.94 1.88 1.85 1.71 1.67 1.69 1.77 1.50 1.37 1.50 1.79 1.94 1.90 1.80 1.60 1.41 1.27 1.15 1.04 0.95 0.74 0.61 0.56 0.65 0.74 0.70 0.64 0.53 0.43 0.33
2.47 2.52 2.50 2.36 2.28 2.25 2.38 2.41 2.61 2.87 2.60 2.47 2.20 2.08 1.96 1.85 1.68 1.67 1.84 2.01 1.79 1.53 1.39 1.50 1.80 1.97 2.01 2.00 1.88 1.61 1.33 1.14 1.00 0.79 0.63 0.58 0.62 0.71 0.71 0.71 0.66 0.49 0.34
2.48 2.56 2.39 2.27 2.48 2.56 2.63 2.75 2.83 2.87 2.73 2.65 2.47 2.16 1.99 1.91 1.52 1.48 1.55 1.62 1.76 1.54 1.61 1.74 1.87 1.94 2.12 2.24 2.24 2.19 1.89 1.47 1.21 1.00 0.81 0.70 0.72 0.74 0.68 0.67 0.65 0.52 0.38
2.30 2.46 2.32 2.39 2.56 2.65 2.68 2.47 2.83 2.82 2.82 2.75 2.31 2.06 1.79 1.66 1.52 1.28 1.26 1.20 1.33 1.38 1.46 1.58 1.73 1.74 2.04 2.40 2.56 2.67 2.53 2.11 1.64 1.36 1.24 1.05 0.94 0.83 0.72 0.68 0.64 0.57 0.44
2.38 2.53 2.39 2.47 2.59 2.69 2.68 2.70 2.87 2.85 2.70 2.68 2.17 1.90 1.64 1.35 1.35 1.28 1.08 1.10 1.15 1.07 1.14 1.35 1.64 1.42 1.77 2.13 2.33 2.65 2.87 2.70 2.24 1.86 1.70 1.57 1.41 1.15 0.90 0.80 0.77 0.70 0.57
2.50 2.68 2.56 2.69 2.66 2.52 2.51 2.68 2.84 2.67 2.46 2.59 2.49 1.90 1.43 1.18 1.17 1.10 1.11 1.17 1.10 1.07 1.21 1.49 1.61 1.52 1.43 1.52 1.59 1.92 2.50 2.88 2.80 2.38 2.05 1.86 1.81 1.67 1.25 1.09 1.01 0.91 0.78
2.44 2.38 2.46 2.36 2.37 2.47 2.48 2.52 2.70 2.54 2.17 2.32 2.39 2.22 1.64 1.37 1.10 0.90 1.05 1.08 1.06 1.18 1.23 1.36 1.64 1.79 1.66 1.75 1.41 1.39 1.97 2.62 2.94 2.90 2.52 2.20 2.07 1.97 1.64 1.50 1.30 1.07 0.93
2.11 2.10 2.10 2.18 2.42 2.44 2.41 2.45 2.47 2.34 2.04 2.02 2.13 2.27 1.78 1.39 1.12 0.82 0.82 0.97 1.15 1.33 1.30 1.43 1.55 1.72 1.79 1.97 1.95 1.67 1.61 1.80 2.36 2.97 2.95 2.60 2.24 1.98 2.00 2.03 1.82 1.40 1.10
1.97 1.91 1.91 1.97 2.04 2.03 2.08 1.92 2.03 2.16 2.17 1.97 2.01 2.00 1.83 1.65 1.50 1.11 0.90 0.91 1.08 1.19 1.28 1.26 1.27 1.40 1.68 2.04 2.14 1.84 1.58 1.43 1.65 2.39 2.90 2.92 2.57 2.22 2.17 2.29 2.44 2.11 1.53
1.89 1.83 1.75 1.73 1.65 1.65 1.76 1.76 1.85 1.89 1.89 1.86 1.88 1.93 1.89 1.81 1.72 1.57 1.27 1.16 1.10 0.97 1.03 1.13 1.18 1.25 1.52 1.79 1.95 1.81 1.75 1.55 1.50 1.69 2.09 2.47 2.54 2.42 2.30 2.41 2.77 2.85 2.45
1.74 1.66 1.63 1.65 1.58 1.56 1.62 1.66 1.74 1.70 1.73 1.77 1.77 1.81 1.86 1.79 1.79 1.80 1.50 1.38 1.29 1.06 1.04 1.01 1.04 1.10 1.33 1.51 1.44 1.54 1.54 1.39 1.30 1.35 1.51 1.82 2.01 2.12 2.19 2.40 2.78 3.12 3.14
1.35 1.34 1.36 1.45 1.46 1.51 1.53 1.53 1.57 1.59 1.68 1.73 1.69 1.73 1.74 1.67 1.66 1.71 1.66 1.44 1.32 1.16 1.18 1.11 1.00 1.04 1.06 1.34 1.33 1.20 1.05 0.98 0.95 0.98 0.98 1.14 1.38 1.55 1.72 1.96 2.30 2.64 2.90
1.09 1.21 1.35 1.42 1.47 1.50 1.44 1.50 1.45 1.42 1.53 1.62 1.63 1.83 1.72 1.56 1.58 1.64 1.74 1.72 1.52 1.34 1.35 1.20 1.05 0.99 1.03 1.15 1.10 0.94 0.87 0.79 0.76 0.73 0.70 0.73 0.81 0.94 1.09 1.32 1.58 1.81 2.01
1.15 1.20 1.28 1.39 1.46 1.54 1.53 1.52 1.45 1.50 1.64 1.64 1.72 1.84 1.73 1.65 1.64 1.62 1.73 1.85 1.80 1.60 1.38 1.26 1.13 1.00 0.97 0.97 0.95 0.93 0.92 0.82 0.70 0.64 0.59 0.58 0.59 0.64 0.73 0.89 1.06 1.23 1.33
1.19 1.17 1.19 1.25 1.24 1.25 1.33 1.39 1.37 1.46 1.64 1.63 1.61 1.68 1.67 1.67 1.79 1.72 1.75 1.85 1.91 1.81 1.46 1.34 1.24 1.02 1.07 0.86 0.84 0.87 0.89 0.80 0.63 0.55 0.53 0.52 0.54 0.57 0.60 0.66 0.77 0.90 1.05
1.14 1.12 1.11 1.09 1.04 0.99 1.03 1.15 1.22 1.37 1.41 1.39 1.32 1.36 1.37 1.47 1.59 1.57 1.61 1.68 1.79 1.84 1.55 1.44 1.54 1.41 1.37 1.15 0.99 0.91 0.77 0.74 0.66 0.56 0.49 0.47 0.48 0.52 0.58 0.59 0.59 0.66 0.77
0.95 0.98 0.98 0.94 0.88 0.90 0.98 1.02 1.12 1.25 1.30 1.26 1.25 1.28 1.22 1.27 1.37 1.38 1.47 1.54 1.67 1.85 1.69 1.58 1.69 1.72 1.63 1.43 1.30 1.12 0.84 0.70 0.72 0.68 0.53 0.45 0.44 0.47 0.54 0.58 0.55 0.55 0.59
0.85 0.89 0.90 0.89 0.87 0.93 1.07 1.17 1.26 1.25 1.14 1.09 1.08 1.08 1.05 1.12 1.17 1.23 1.33 1.36 1.44 1.71 1.77 1.63 1.66 1.90 1.87 1.69 1.65 1.38 1.17 1.06 0.79 0.73 0.61 0.50 0.47 0.47 0.52 0.60 0.61 0.57 0.54
0.86 0.91 0.94 0.99 1.05 1.08 1.08 1.13 1.16 1.20 1.16 1.02 0.88 0.79 0.78 0.88 0.95 1.06 1.16 1.25 1.34 1.49 1.66 1.70 1.67 1.87 1.95 1.83 1.94 1.73 1.48 1.32 1.07 0.85 0.77 0.59 0.53 0.53 0.53 0.55 0.59 0.63 0.64
0.81 0.94 1.05 1.09 1.18 1.11 0.98 1.01 1.07 1.01 1.04 0.99 0.87 0.72 0.62 0.64 0.72 0.86 0.88 1.02 1.20 1.33 1.42 1.56 1.64 1.78 1.99 2.01 1.88 1.84 1.67 1.50 1.38 1.25 1.21 0.87 0.61 0.53 0.53 0.54 0.59 0.67 0.74
0.81 0.90 0.91 0.99 1.06 0.89 0.83 0.81 0.85 0.89 0.91 0.91 0.89 0.83 0.72 0.65 0.63 0.67 0.70 0.76 0.85 0.97 1.13 1.33 1.42 1.55 1.78 2.00 1.99 2.00 1.90 1.66 1.51 1.41 1.48 1.47 1.13 0.89 0.72 0.54 0.55 0.63 0.76
0.82 0.86 0.84 0.86 0.90 0.99 0.89 0.78 0.76 0.80 0.87 0.88 0.87 0.83 0.66 0.54 0.59 0.59 0.61 0.63 0.67 0.66 0.72 0.93 1.06 1.11 1.32 1.63 1.96 2.05 2.11 1.95 1.74 1.69 1.74 1.81 1.86 1.61 1.12 0.82 0.73 0.64 0.71
0.94 0.94 0.87 0.88 0.90 0.90 0.93 0.85 0.83 0.77 0.80 0.84 0.87 0.85 0.80 0.73 0.67 0.70 0.72 0.69 0.59 0.57 0.59 0.60 0.67 0.87 1.05 1.30 1.67 1.86 2.11 2.28 2.13 2.03 2.03 2.07 2.11 2.31 1.85 1.30 1.08 0.86 0.81
1.04 1.05 1.00 1.00 1.00 0.98 0.93 0.81 0.78 0.74 0.78 0.81 0.87 0.87 0.86 0.80 0.78 0.74 0.76 0.78 0.70 0.67 0.66 0.67 0.66 0.78 0.97 1.10 1.37 1.71 1.95 2.08 2.12 2.18 2.21 2.26 2.21 2.35 2.65 2.21 1.52 1.14 0.92
1.20 1.20 1.19 1.18 1.19 1.17 1.12 0.97 0.89 0.81 0.86 0.90 1.00 0.99 0.88 0.77 0.81 0.77 0.71 0.78 0.79 0.80 0.85 0.80 0.78 0.79 0.85 0.99 1.22 1.49 1.70 1.88 1.91 2.00 1.90 1.86 1.87 2.00 2.42 2.67 2.31 1.68 1.23

GEFSMA_prec_meanprecacc_192.txt.gz
Total_Precipitation_Accumulation
1.94 1.98 1.93 1.93 1.78 1.97 2.32 2.41 2.31 2.53 2.58 2.36 2.11 1.90 1.82 1.67 1.53 1.54 1.62 1.54 1.43 1.51 1.78 1.88 1.74 1.62 1.50 1.32 1.15 1.09 1.05 0.97 0.93 0.79 0.66 0.62 0.73 0.71 0.60 0.52 0.47 0.41 0.39
2.38 2.42 2.27 2.20 2.05 2.07 2.28 2.42 2.45 2.95 2.84 2.68 2.22 1.99 1.93 1.89 1.74 1.70 1.74 1.83 1.55 1.41 1.54 1.83 1.99 1.94 1.83 1.61 1.41 1.28 1.16 1.07 0.96 0.75 0.62 0.57 0.66 0.75 0.71 0.64 0.53 0.43 0.33
2.48 2.54 2.52 2.39 2.31 2.27 2.42 2.47 2.67 2.92 2.64 2.53 2.26 2.13 2.02 1.90 1.72 1.70 1.87 2.06 1.85 1.57 1.42 1.54 1.84 2.01 2.04 2.03 1.90 1.63 1.35 1.15 1.02 0.80 0.64 0.59 0.63 0.72 0.72 0.72 0.66 0.50 0.35
2.49 2.58 2.41 2.31 2.51 2.59 2.67 2.82 2.92 2.95 2.80 2.71 2.52 2.20 2.02 1.96 1.57 1.51 1.57 1.65 1.80 1.59 1.66 1.77 1.91 1.98 2.15 2.27 2.27 2.21 1.91 1.48 1.22 1.02 0.83 0.71 0.73 0.76 0.70 0.68 0.66 0.53 0.39
2.33 2.49 2.36 2.44 2.61 2.70 2.73 2.52 2.90 2.90 2.91 2.82 2.36 2.10 1.82 1.70 1.58 1.32 1.29 1.23 1.37 1.42 1.51 1.61 1.76 1.76 2.06 2.43 2.59 2.69 2.57 2.14 1.66 1.38 1.26 1.07 0.96 0.84 0.74 0.70 0.66 0.58 0.45
2.44 2.60 2.45 2.52 2.65 2.76 2.76 2.78 2.97 2.95 2.79 2.77 2.22 1.94 1.68 1.37 1.37 1.31 1.11 1.13 1.18 1.09 1.16 1.37 1.68 1.45 1.80 2.16 2.36 2.70 2.93 2.77 2.30 1.91 1.74 1.60 1.44 1.18 0.92 0.82 0.78 0.71 0.58
2.60 2.81 2.64 2.78 2.76 2.62 2.62 2.77 2.93 2.77 2.55 2.67 2.57 1.98 1.48 1.20 1.19 1.13 1.15 1.20 1.11 1.09 1.24 1.53 1.67 1.56 1.46 1.54 1.61 1.95 2.55 2.97 2.88 2.45 2.11 1.90 1.84 1.69 1.26 1.10 1.02 0.92 0.79
2.53 2.46 2.53 2.43 2.48 2.60 2.60 2.63 2.80 2.65 2.27 2.41 2.49 2.32 1.71 1.42 1.13 0.92 1.08 1.11 1.09 1.21 1.25 1.39 1.67 1.84 1.70 1.78 1.42 1.40 1.99 2.67 3.01 2.97 2.58 2.24 2.10 1.99 1.66 1.52 1.31 1.08 0.94
2.16 2.16 2.15 2.25 2.52 2.55 2.52 2.59 2.60 2.46 2.14 2.12 2.25 2.39 1.88 1.47 1.19 0.86 0.84 0.98 1.18 1.36 1.33 1.47 1.57 1.75 1.82 2.01 1.98 1.70 1.62 1.81 2.38 3.02 3.01 2.67 2.28 2.01 2.02 2.05 1.84 1.42 1.11
2.03 1.98 1.98 2.05 2.15 2.14 2.20 2.04 2.13 2.27 2.29 2.08 2.12 2.08 1.91 1.71 1.57 1.18 0.95 0.93 1.10 1.21 1.30 1.28 1.29 1.42 1.70 2.07 2.19 1.87 1.59 1.44 1.65 2.41 2.94 2.97 2.61 2.25 2.20 2.31 2.46 2.13 1.55
1.97 1.92 1.85 1.82 1.76 1.77 1.89 1.88 1.96 1.99 1.99 1.95 1.96 2.00 1.95 1.87 1.75 1.62 1.34 1.20 1.13 0.98 1.04 1.14 1.20 1.27 1.54 1.83 1.99 1.83 1.76 1.55 1.50 1.70 2.11 2.50 2.60 2.48 2.34 2.44 2.79 2.87 2.48
1.81 1.74 1.74 1.75 1.69 1.67 1.73 1.78 1.85 1.79 1.81 1.86 1.85 1.87 1.92 1.85 1.84 1.85 1.56 1.43 1.33 1.07 1.05 1.02 1.05 1.11 1.35 1.52 1.45 1.56 1.55 1.40 1.31 1.36 1.52 1.84 2.06 2.17 2.23 2.44 2.82 3.16 3.19
1.40 1.40 1.43 1.54 1.55 1.60 1.62 1.65 1.69 1.69 1.77 1.83 1.78 1.82 1.80 1.73 1.72 1.77 1.73 1.49 1.38 1.19 1.19 1.12 1.00 1.05 1.07 1.35 1.35 1.22 1.07 0.99 0.97 0.99 1.01 1.16 1.41 1.58 1.75 1.99 2.34 2.69 2.97
1.15 1.27 1.41 1.48 1.53 1.57 1.51 1.59 1.53 1.51 1.63 1.71 1.71 1.92 1.81 1.63 1.65 1.72 1.82 1.82 1.61 1.39 1.38 1.22 1.06 1.00 1.03 1.16 1.13 0.95 0.88 0.81 0.77 0.75 0.72 0.75 0.84 0.96 1.11 1.33 1.60 1.84 2.05
1.19 1.25 1.33 1.45 1.50 1.60 1.60 1.60 1.51 1.56 1.74 1.73 1.80 1.93 1.84 1.75 1.74 1.71 1.82 1.94 1.89 1.66 1.43 1.30 1.16 1.02 0.99 0.99 0.97 0.95 0.94 0.84 0.72 0.67 0.62 0.60 0.62 0.66 0.74 0.90 1.07 1.24 1.34
1.23 1.20 1.24 1.30 1.30 1.34 1.43 1.46 1.43 1.53 1.72 1.71 1.70 1.77 1.76 1.76 1.90 1.83 1.84 1.93 2.00 1.91 1.53 1.37 1.27 1.04 1.11 0.89 0.87 0.89 0.92 0.82 0.66 0.58 0.56 0.56 0.57 0.60 0.62 0.67 0.77 0.91 1.06
1.18 1.16 1.16 1.14 1.11 1.05 1.09 1.22 1.28 1.43 1.46 1.45 1.39 1.42 1.44 1.57 1.72 1.68 1.73 1.78 1.90 1.96 1.64 1.48 1.58 1.46 1.43 1.21 1.04 0.96 0.81 0.79 0.71 0.60 0.53 0.50 0.50 0.54 0.60 0.61 0.61 0.67 0.78
1.00 1.04 1.04 0.99 0.94 0.95 1.02 1.06 1.16 1.29 1.35 1.32 1.30 1.35 1.29 1.37 1.48 1.49 1.59 1.66 1.78 1.97 1.79 1.67 1.76 1.79 1.72 1.52 1.39 1.19 0.89 0.75 0.77 0.73 0.57 0.49 0.47 0.49 0.56 0.60 0.57 0.56 0.60
0.90 0.93 0.96 0.94 0.91 0.99 1.11 1.21 1.30 1.30 1.20 1.14 1.14 1.14 1.12 1.21 1.25 1.32 1.44 1.46 1.54 1.81 1.87 1.73 1.76 2.03 1.98 1.78 1.76 1.48 1.25 1.15 0.84 0.77 0.65 0.54 0.51 0.50 0.53 0.61 0.62 0.58 0.56
0.93 0.97 1.00 1.06 1.12 1.14 1.13 1.17 1.21 1.24 1.22 1.08 0.94 0.85 0.85 0.97 1.04 1.16 1.26 1.35 1.46 1.62 1.79 1.82 1.78 1.97 2.04 1.92 2.03 1.81 1.55 1.38 1.12 0.88 0.82 0.62 0.56 0.56 0.55 0.57 0.61 0.64 0.65
0.88 1.00 1.12 1.16 1.23 1.16 1.03 1.06 1.11 1.06 1.11 1.07 0.94 0.78 0.69 0.71 0.79 0.95 0.97 1.13 1.34 1.48 1.55 1.68 1.74 1.85 2.06 2.09 1.95 1.91 1.74 1.57 1.45 1.31 1.28 0.93 0.66 0.58 0.57 0.57 0.61 0.69 0.76
0.87 0.95 0.96 1.04 1.10 0.92 0.86 0.84 0.88 0.94 0.97 0.98 0.96 0.92 0.81 0.72 0.70 0.74 0.78 0.85 0.95 1.08 1.26 1.46 1.53 1.64 1.86 2.06 2.07 2.10 2.00 1.77 1.60 1.48 1.56 1.54 1.19 0.94 0.76 0.57 0.58 0.66 0.79
0.89 0.92 0.89 0.90 0.92 1.01 0.91 0.79 0.78 0.83 0.92 0.96 0.97 0.94 0.77 0.65 0.71 0.71 0.74 0.75 0.77 0.76 0.82 1.03 1.16 1.20 1.41 1.73 2.06 2.14 2.21 2.05 1.83 1.78 1.85 1.91 1.94 1.69 1.18 0.86 0.78 0.68 0.75
1.00 0.99 0.91 0.91 0.92 0.92 0.94 0.87 0.86 0.79 0.83 0.89 0.93 0.93 0.91 0.86 0.80 0.82 0.84 0.80 0.69 0.65 0.68 0.69 0.76 0.96 1.13 1.39 1.76 1.94 2.20 2.37 2.21 2.11 2.12 2.17 2.19 2.40 1.93 1.37 1.15 0.92 0.87
1.07 1.08 1.03 1.02 1.02 1.00 0.95 0.82 0.82 0.77 0.81 0.84 0.91 0.92 0.92 0.88 0.87 0.83 0.84 0.86 0.78 0.75 0.74 0.75 0.74 0.86 1.05 1.18 1.45 1.78 2.03 2.18 2.23 2.29 2.33 2.39 2.33 2.46 2.75 2.30 1.60 1.22 0.99
1.25 1.25 1.23 1.22 1.22 1.21 1.17 1.00 0.92 0.84 0.89 0.93 1.04 1.04 0.94 0.84 0.89 0.84 0.78 0.85 0.86 0.88 0.93 0.89 0.86 0.88 0.94 1.08 1.33 1.59 1.80 2.01 2.04 2.12 2.01 1.97 1.99 2.13 2.56 2.79 2.41 1.79 1.33